| time (UTC) | temp F | wind direction | speed MPH | gust MPH | rain 1hr in | rain 24hr in | rain mn in | humidity % | barometer mb |
| 20260903165458 | 84 | 86 | 0.0 | 6.0 | 0.00 | 0.00 | 0.00 | 76 | 1010.3 |
| 20260903164907 | 84 | 105 | 1.0 | 6.0 | 0.00 | 0.00 | 0.00 | 76 | 1010.3 |
| 20260903164802 | 84 | 106 | 1.0 | 6.0 | 0.00 | 0.00 | 0.00 | 75 | 1010.3 |
| 20260903164655 | 84 | 98 | 0.0 | 6.0 | 0.00 | 0.00 | 0.00 | 75 | 1010.3 |
| 20260903164549 | 84 | 150 | 0.0 | 6.0 | 0.00 | 0.00 | 0.00 | 77 | 1010.3 |
| 20260903164441 | 84 | 161 | 0.0 | 6.0 | 0.00 | 0.00 | 0.00 | 76 | 1010.3 |
| 20260903164338 | 84 | 162 | 1.0 | 6.0 | 0.00 | 0.00 | 0.00 | 76 | 1010.3 |
| 20260903164008 | 84 | 121 | 0.0 | 6.0 | 0.00 | 0.00 | 0.00 | 76 | 1010.4 |
| 20260903163904 | 84 | 155 | 0.0 | 6.0 | 0.00 | 0.00 | 0.00 | 76 | 1010.5 |
| 20260903163801 | 84 | 119 | 0.0 | 6.0 | 0.00 | 0.00 | 0.00 | 77 | 1010.5 |
| 20260903163655 | 84 | 127 | 0.0 | 6.0 | 0.00 | 0.00 | 0.00 | 77 | 1010.5 |
| 20260903163333 | 84 | 90 | 0.0 | 5.0 | 0.00 | 0.00 | 0.00 | 77 | 1010.6 |
| 20260903163007 | 84 | 153 | 0.0 | 0.0 | 0.00 | 0.00 | 0.00 | 79 | 1010.7 |
| 20260903162903 | 83 | 167 | 0.0 | 0.0 | 0.00 | 0.00 | 0.00 | 78 | 1010.7 |
| 20260903162759 | 83 | 169 | 0.0 | 4.0 | 0.00 | 0.00 | 0.00 | 78 | 1010.7 |
| 20260903162434 | 83 | 157 | 0.0 | 4.0 | 0.00 | 0.00 | 0.00 | 78 | 1010.7 |
| 20260903162327 | 83 | 165 | 0.0 | 4.0 | 0.00 | 0.00 | 0.00 | 77 | 1010.7 |
| 20260903162220 | 83 | 156 | 0.0 | 4.0 | 0.00 | 0.00 | 0.00 | 78 | 1010.7 |
| 20260903162113 | 83 | 112 | 0.0 | 2.0 | 0.00 | 0.00 | 0.00 | 77 | 1010.8 |
| 20260903162008 | 82 | 112 | 0.0 | 2.0 | 0.00 | 0.00 | 0.00 | 78 | 1010.9 |
| 20260903161904 | 82 | 88 | 0.0 | 1.0 | 0.00 | 0.00 | 0.00 | 79 | 1011.0 |
| 20260903161801 | 82 | 67 | 0.0 | 0.0 | 0.00 | 0.00 | 0.00 | 79 | 1011.1 |
| 20260903161654 | 82 | 67 | 0.0 | 0.0 | 0.00 | 0.00 | 0.00 | 79 | 1011.1 |
| 20260903161553 | 82 | 67 | 0.0 | 0.0 | 0.00 | 0.00 | 0.00 | 78 | 1011.1 |
| 20260903161229 | 82 | 67 | 0.0 | 2.0 | 0.00 | 0.00 | 0.00 | 77 | 1011.0 |
| 20260903160901 | 82 | 67 | 0.0 | 0.0 | 0.00 | 0.00 | 0.00 | 77 | 1010.9 |
| 20260903160755 | 82 | 67 | 0.0 | 0.0 | 0.00 | 0.00 | 0.00 | 78 | 1010.9 |
| 20260903160427 | 82 | 67 | 1.0 | 6.0 | 0.00 | 0.00 | 0.00 | 77 | 1011.0 |
| 20260903160325 | 82 | 60 | 1.0 | 6.0 | 0.00 | 0.00 | 0.00 | 78 | 1011.0 |
| 20260903160217 | 82 | 60 | 0.0 | 6.0 | 0.00 | 0.00 | 0.00 | 77 | 1011.0 |
| 20260903160113 | 82 | 24 | 0.0 | 6.0 | 0.00 | 0.00 | 0.00 | 78 | 1011.1 |
| 20260903160007 | 82 | 25 | 0.0 | 6.0 | 0.00 | 0.00 | 0.00 | 77 | 1011.1 |
| 20260903155904 | 82 | 48 | 0.0 | 6.0 | 0.00 | 0.00 | 0.00 | 79 | 1011.1 |
| 20260903155759 | 82 | 13 | 0.0 | 5.0 | 0.00 | 0.00 | 0.00 | 80 | 1011.1 |
| 20260903155654 | 82 | 42 | 0.0 | 3.0 | 0.00 | 0.00 | 0.00 | 81 | 1011.1 |
| 20260903155547 | 82 | 42 | 0.0 | 3.0 | 0.00 | 0.00 | 0.00 | 80 | 1011.1 |
| 20260903155441 | 81 | 67 | 1.0 | 0.0 | 0.00 | 0.00 | 0.00 | 79 | 1011.1 |
| 20260903155338 | 81 | 69 | 1.0 | 0.0 | 0.00 | 0.00 | 0.00 | 80 | 1011.0 |
| 20260903155232 | 81 | 69 | 1.0 | 0.0 | 0.00 | 0.00 | 0.00 | 78 | 1011.1 |
| 20260903155124 | 81 | 69 | 1.0 | 0.0 | 0.00 | 0.00 | 0.00 | 79 | 1011.1 |
| 20260903155021 | 81 | 68 | 1.0 | 10.0 | 0.00 | 0.00 | 0.00 | 78 | 1011.1 |
| 20260903154914 | 81 | 68 | 1.0 | 10.0 | 0.00 | 0.00 | 0.00 | 78 | 1011.1 |
| 20260903154552 | 81 | 34 | 0.0 | 10.0 | 0.00 | 0.00 | 0.00 | 79 | 1011.3 |
| 20260903154447 | 81 | 26 | 0.0 | 7.0 | 0.00 | 0.00 | 0.00 | 83 | 1011.3 |
| 20260903154118 | 81 | 16 | 0.0 | 0.0 | 0.00 | 0.00 | 0.00 | 83 | 1011.2 |
| 20260903153753 | 81 | 279 | 0.0 | 0.0 | 0.00 | 0.00 | 0.00 | 83 | 1011.1 |
| 20260903153649 | 81 | 279 | 0.0 | 0.0 | 0.00 | 0.00 | 0.00 | 83 | 1011.1 |
| 20260903153542 | 81 | 279 | 0.0 | 0.0 | 0.00 | 0.00 | 0.00 | 82 | 1011.1 |
| 20260903153440 | 81 | 279 | 0.0 | 0.0 | 0.00 | 0.00 | 0.00 | 82 | 1011.1 |
| 20260903153333 | 81 | 279 | 0.0 | 0.0 | 0.00 | 0.00 | 0.00 | 82 | 1011.1 |
| 20260903153228 | 81 | 279 | 0.0 | 0.0 | 0.00 | 0.00 | 0.00 | 82 | 1011.1 |
| 20260903153126 | 81 | 279 | 0.0 | 0.0 | 0.00 | 0.00 | 0.00 | 82 | 1011.1 |
| 20260903152804 | 80 | 279 | 0.0 | 0.0 | 0.00 | 0.00 | 0.00 | 82 | 1011.0 |
| 20260903152700 | 80 | 279 | 0.0 | 0.0 | 0.00 | 0.00 | 0.00 | 82 | 1011.0 |
| 20260903152552 | 80 | 279 | 0.0 | 0.0 | 0.00 | 0.00 | 0.00 | 82 | 1011.0 |
| 20260903152450 | 80 | 279 | 0.0 | 0.0 | 0.00 | 0.00 | 0.00 | 82 | 1011.0 |
| 20260903152345 | 80 | 279 | 0.0 | 0.0 | 0.00 | 0.00 | 0.00 | 82 | 1011.0 |
| 20260903152239 | 80 | 279 | 0.0 | 0.0 | 0.00 | 0.00 | 0.00 | 82 | 1010.9 |
| 20260903152132 | 80 | 280 | 0.0 | 0.0 | 0.00 | 0.00 | 0.00 | 82 | 1010.9 |
| 20260903152030 | 80 | 280 | 0.0 | 0.0 | 0.00 | 0.00 | 0.00 | 82 | 1010.9 |
| 20260903151927 | 80 | 280 | 0.0 | 0.0 | 0.00 | 0.00 | 0.00 | 82 | 1010.8 |
| 20260903151822 | 80 | 280 | 0.0 | 0.0 | 0.00 | 0.00 | 0.00 | 82 | 1010.9 |
| 20260903151718 | 80 | 280 | 0.0 | 0.0 | 0.00 | 0.00 | 0.00 | 81 | 1010.9 |
| 20260903151135 | 80 | 281 | 0.0 | 0.0 | 0.00 | 0.00 | 0.00 | 82 | 1010.9 |
| 20260903150811 | 80 | 282 | 0.0 | 0.0 | 0.00 | 0.00 | 0.00 | 82 | 1011.0 |
| 20260903150224 | 80 | 284 | 0.0 | 0.0 | 0.00 | 0.00 | 0.00 | 82 | 1011.0 |
| 20260903150117 | 80 | 284 | 0.0 | 0.0 | 0.00 | 0.00 | 0.00 | 81 | 1011.0 |
| 20260903150010 | 80 | 284 | 0.0 | 0.0 | 0.00 | 0.00 | 0.00 | 81 | 1010.9 |
| 20260903145648 | 80 | 284 | 0.0 | 0.0 | 0.00 | 0.00 | 0.00 | 82 | 1010.8 |
| 20260903145544 | 80 | 284 | 0.0 | 0.0 | 0.00 | 0.00 | 0.00 | 82 | 1010.8 |
| 20260903145437 | 80 | 284 | 0.0 | 0.0 | 0.00 | 0.00 | 0.00 | 82 | 1010.7 |
| 20260903145335 | 80 | 284 | 0.0 | 0.0 | 0.00 | 0.00 | 0.00 | 82 | 1010.8 |
| 20260903145228 | 80 | 284 | 0.0 | 0.0 | 0.00 | 0.00 | 0.00 | 82 | 1010.8 |
| 20260903145124 | 80 | 284 | 0.0 | 0.0 | 0.00 | 0.00 | 0.00 | 82 | 1010.8 |
| 20260903145020 | 80 | 284 | 0.0 | 0.0 | 0.00 | 0.00 | 0.00 | 82 | 1010.8 |
| 20260903144915 | 80 | 284 | 0.0 | 0.0 | 0.00 | 0.00 | 0.00 | 82 | 1010.9 |
| 20260903144810 | 80 | 285 | 0.0 | 0.0 | 0.00 | 0.00 | 0.00 | 82 | 1010.9 |
| 20260903144703 | 80 | 285 | 0.0 | 0.0 | 0.00 | 0.00 | 0.00 | 82 | 1010.9 |
| 20260903144601 | 79 | 286 | 0.0 | 0.0 | 0.00 | 0.00 | 0.00 | 82 | 1010.8 |
| 20260903144455 | 79 | 285 | 0.0 | 0.0 | 0.00 | 0.00 | 0.00 | 82 | 1010.8 |
| 20260903144348 | 79 | 286 | 0.0 | 0.0 | 0.00 | 0.00 | 0.00 | 82 | 1010.8 |
| 20260903144244 | 79 | 286 | 0.0 | 0.0 | 0.00 | 0.00 | 0.00 | 82 | 1010.8 |
| 20260903144138 | 79 | 286 | 0.0 | 0.0 | 0.00 | 0.00 | 0.00 | 82 | 1010.8 |
| 20260903143811 | 79 | 270 | 1.0 | 7.0 | 0.00 | 0.00 | 0.00 | 82 | 1010.9 |
| 20260903143709 | 79 | 270 | 1.0 | 7.0 | 0.00 | 0.00 | 0.00 | 83 | 1010.9 |
| 20260903143602 | 79 | 277 | 1.0 | 7.0 | 0.00 | 0.00 | 0.00 | 83 | 1011.1 |
| 20260903143457 | 79 | 281 | 1.0 | 7.0 | 0.00 | 0.00 | 0.00 | 83 | 1011.1 |
| 20260903143354 | 79 | 304 | 1.0 | 7.0 | 0.00 | 0.00 | 0.00 | 83 | 1011.1 |
| 20260903143249 | 79 | 270 | 0.0 | 7.0 | 0.00 | 0.00 | 0.00 | 84 | 1011.1 |
| 20260903143145 | 79 | 313 | 0.0 | 7.0 | 0.00 | 0.00 | 0.00 | 84 | 1011.2 |
| 20260903143043 | 79 | 305 | 0.0 | 7.0 | 0.00 | 0.00 | 0.00 | 85 | 1011.2 |
| 20260903142940 | 79 | 253 | 0.0 | 7.0 | 0.00 | 0.00 | 0.00 | 86 | 1011.2 |
| 20260903142836 | 79 | 346 | 0.0 | 4.0 | 0.00 | 0.00 | 0.00 | 87 | 1011.3 |
| 20260903142728 | 79 | 293 | 0.0 | 3.0 | 0.00 | 0.00 | 0.00 | 87 | 1011.2 |
| 20260903142623 | 79 | 280 | 0.0 | 3.0 | 0.00 | 0.00 | 0.00 | 87 | 1011.2 |
| 20260903142301 | 79 | 318 | 0.0 | 0.0 | 0.00 | 0.00 | 0.00 | 88 | 1011.3 |
| 20260903141938 | 79 | 313 | 0.0 | 0.0 | 0.00 | 0.00 | 0.00 | 88 | 1011.1 |
| 20260903141836 | 79 | 313 | 0.0 | 0.0 | 0.00 | 0.00 | 0.00 | 88 | 1011.1 |
| 20260903141733 | 79 | 313 | 0.0 | 0.0 | 0.00 | 0.00 | 0.00 | 88 | 1011.1 |
| 20260903141625 | 79 | 313 | 0.0 | 0.0 | 0.00 | 0.00 | 0.00 | 88 | 1011.1 |
| 20260903141522 | 79 | 312 | 0.0 | 0.0 | 0.00 | 0.00 | 0.00 | 88 | 1011.2 |
| 20260903141415 | 79 | 313 | 0.0 | 0.0 | 0.00 | 0.00 | 0.00 | 88 | 1011.2 |
| 20260903141311 | 79 | 313 | 0.0 | 0.0 | 0.00 | 0.00 | 0.00 | 87 | 1011.2 |
| 20260903141208 | 79 | 313 | 0.0 | 0.0 | 0.00 | 0.00 | 0.00 | 87 | 1011.2 |
| 20260903141105 | 79 | 313 | 0.0 | 0.0 | 0.00 | 0.00 | 0.00 | 87 | 1011.3 |
| 20260903140959 | 79 | 279 | 0.0 | 0.0 | 0.00 | 0.00 | 0.00 | 87 | 1011.2 |
| 20260903140853 | 79 | 273 | 0.0 | 0.0 | 0.00 | 0.00 | 0.00 | 87 | 1011.2 |
| 20260903140749 | 79 | 273 | 0.0 | 0.0 | 0.00 | 0.00 | 0.00 | 87 | 1011.1 |
| 20260903140645 | 79 | 273 | 0.0 | 0.0 | 0.00 | 0.00 | 0.00 | 87 | 1011.0 |
| 20260903140543 | 79 | 273 | 0.0 | 0.0 | 0.00 | 0.00 | 0.00 | 87 | 1010.9 |
| 20260903140221 | 80 | 273 | 0.0 | 0.0 | 0.00 | 0.00 | 0.00 | 86 | 1010.7 |
| 20260903140116 | 80 | 273 | 0.0 | 0.0 | 0.00 | 0.00 | 0.00 | 86 | 1010.7 |
| 20260903140011 | 80 | 273 | 0.0 | 0.0 | 0.00 | 0.00 | 0.00 | 86 | 1010.7 |
| 20260903135906 | 80 | 273 | 0.0 | 0.0 | 0.00 | 0.00 | 0.00 | 86 | 1010.6 |
| 20260903135804 | 80 | 273 | 0.0 | 0.0 | 0.00 | 0.00 | 0.00 | 86 | 1010.6 |
| 20260903135656 | 80 | 273 | 0.0 | 0.0 | 0.00 | 0.00 | 0.00 | 86 | 1010.5 |
| 20260903135549 | 80 | 273 | 0.0 | 0.0 | 0.00 | 0.00 | 0.00 | 86 | 1010.6 |
| 20260903135225 | 80 | 273 | 0.0 | 0.0 | 0.00 | 0.00 | 0.00 | 86 | 1010.5 |
| 20260903135118 | 80 | 273 | 0.0 | 0.0 | 0.00 | 0.00 | 0.00 | 86 | 1010.5 |
| 20260903134753 | 80 | 273 | 0.0 | 0.0 | 0.00 | 0.00 | 0.00 | 86 | 1010.7 |
| 20260903134648 | 80 | 273 | 0.0 | 0.0 | 0.00 | 0.00 | 0.00 | 85 | 1010.6 |
| 20260903134541 | 80 | 273 | 0.0 | 0.0 | 0.00 | 0.00 | 0.00 | 85 | 1010.7 |
| 20260903134437 | 80 | 273 | 0.0 | 0.0 | 0.00 | 0.00 | 0.00 | 85 | 1010.7 |
| 20260903134331 | 80 | 273 | 0.0 | 0.0 | 0.00 | 0.00 | 0.00 | 85 | 1010.6 |
| 20260903134224 | 80 | 273 | 0.0 | 0.0 | 0.00 | 0.00 | 0.00 | 85 | 1010.6 |
| 20260903134122 | 80 | 273 | 0.0 | 0.0 | 0.00 | 0.00 | 0.00 | 85 | 1010.6 |
| 20260903134015 | 80 | 273 | 0.0 | 0.0 | 0.00 | 0.00 | 0.00 | 85 | 1010.6 |
| 20260903133911 | 80 | 273 | 0.0 | 0.0 | 0.00 | 0.00 | 0.00 | 85 | 1010.6 |
| 20260903133807 | 80 | 273 | 0.0 | 0.0 | 0.00 | 0.00 | 0.00 | 85 | 1010.7 |
| 20260903133703 | 80 | 273 | 0.0 | 0.0 | 0.00 | 0.00 | 0.00 | 85 | 1010.8 |
| 20260903133556 | 80 | 273 | 0.0 | 0.0 | 0.00 | 0.00 | 0.00 | 84 | 1010.9 |
| 20260903133454 | 80 | 273 | 0.0 | 0.0 | 0.00 | 0.00 | 0.00 | 85 | 1010.8 |
| 20260903133351 | 80 | 273 | 0.0 | 0.0 | 0.00 | 0.00 | 0.00 | 84 | 1010.9 |
| 20260903133243 | 80 | 273 | 0.0 | 0.0 | 0.00 | 0.00 | 0.00 | 84 | 1010.9 |
| 20260903132658 | 81 | 274 | 0.0 | 0.0 | 0.00 | 0.00 | 0.00 | 84 | 1010.9 |
| 20260903132555 | 81 | 274 | 0.0 | 0.0 | 0.00 | 0.00 | 0.00 | 84 | 1010.9 |
| 20260903132450 | 81 | 274 | 0.0 | 0.0 | 0.00 | 0.00 | 0.00 | 84 | 1010.9 |
| 20260903132344 | 81 | 274 | 0.0 | 0.0 | 0.00 | 0.00 | 0.00 | 84 | 1010.9 |
| 20260903132023 | 81 | 275 | 0.0 | 0.0 | 0.00 | 0.00 | 0.00 | 85 | 1010.9 |
| 20260903131920 | 81 | 275 | 0.0 | 0.0 | 0.00 | 0.00 | 0.00 | 85 | 1010.9 |
| 20260903131814 | 81 | 275 | 0.0 | 0.0 | 0.00 | 0.00 | 0.00 | 85 | 1010.9 |
| 20260903131711 | 81 | 275 | 0.0 | 4.0 | 0.00 | 0.00 | 0.00 | 85 | 1011.0 |
| 20260903131347 | 80 | 282 | 0.0 | 4.0 | 0.00 | 0.00 | 0.00 | 85 | 1010.9 |
| 20260903131021 | 80 | 239 | 0.0 | 0.0 | 0.00 | 0.00 | 0.00 | 86 | 1011.0 |
| 20260903130913 | 80 | 283 | 0.0 | 0.0 | 0.00 | 0.00 | 0.00 | 87 | 1011.0 |
| 20260903130810 | 80 | 285 | 0.0 | 0.0 | 0.00 | 0.00 | 0.00 | 87 | 1011.0 |
| 20260903130704 | 80 | 285 | 0.0 | 0.0 | 0.00 | 0.00 | 0.00 | 87 | 1011.0 |
| 20260903130559 | 80 | 286 | 0.0 | 0.0 | 0.00 | 0.00 | 0.00 | 87 | 1011.0 |
| 20260903130458 | 80 | 286 | 0.0 | 0.0 | 0.00 | 0.00 | 0.00 | 87 | 1011.0 |
| 20260903130352 | 80 | 286 | 0.0 | 0.0 | 0.00 | 0.00 | 0.00 | 87 | 1011.0 |
| 20260903130244 | 80 | 286 | 0.0 | 0.0 | 0.00 | 0.00 | 0.00 | 87 | 1011.0 |
| 20260903130137 | 80 | 286 | 0.0 | 0.0 | 0.00 | 0.00 | 0.00 | 87 | 1011.0 |
| 20260903130031 | 80 | 287 | 0.0 | 0.0 | 0.00 | 0.00 | 0.00 | 88 | 1011.0 |
| 20260903125926 | 79 | 287 | 0.0 | 0.0 | 0.00 | 0.00 | 0.00 | 88 | 1010.9 |
| 20260903125823 | 79 | 287 | 0.0 | 0.0 | 0.00 | 0.00 | 0.00 | 88 | 1010.9 |
| 20260903125721 | 79 | 287 | 0.0 | 0.0 | 0.00 | 0.00 | 0.00 | 87 | 1010.8 |
| 20260903125615 | 79 | 287 | 0.0 | 0.0 | 0.00 | 0.00 | 0.00 | 88 | 1010.8 |
| 20260903125243 | 79 | 288 | 0.0 | 0.0 | 0.00 | 0.00 | 0.00 | 88 | 1010.6 |
| 20260903125137 | 79 | 288 | 0.0 | 0.0 | 0.00 | 0.00 | 0.00 | 88 | 1010.7 |
| 20260903125031 | 79 | 288 | 0.0 | 0.0 | 0.00 | 0.00 | 0.00 | 88 | 1010.7 |
| 20260903124928 | 79 | 288 | 0.0 | 0.0 | 0.00 | 0.00 | 0.00 | 88 | 1010.7 |
| 20260903124820 | 79 | 288 | 0.0 | 0.0 | 0.00 | 0.00 | 0.00 | 89 | 1010.8 |
| 20260903124713 | 79 | 288 | 0.0 | 0.0 | 0.00 | 0.00 | 0.00 | 88 | 1010.8 |
| 20260903124608 | 79 | 288 | 0.0 | 0.0 | 0.00 | 0.00 | 0.00 | 89 | 1010.8 |
| 20260903124506 | 79 | 288 | 0.0 | 0.0 | 0.00 | 0.00 | 0.00 | 89 | 1010.9 |
| 20260903124403 | 78 | 288 | 0.0 | 0.0 | 0.00 | 0.00 | 0.00 | 89 | 1010.9 |
| 20260903124300 | 78 | 288 | 0.0 | 0.0 | 0.00 | 0.00 | 0.00 | 89 | 1010.9 |
| 20260903124156 | 78 | 290 | 0.0 | 0.0 | 0.00 | 0.00 | 0.00 | 89 | 1010.9 |
| 20260903124052 | 78 | 289 | 0.0 | 0.0 | 0.00 | 0.00 | 0.00 | 89 | 1010.9 |
| 20260903123945 | 78 | 289 | 0.0 | 0.0 | 0.00 | 0.00 | 0.00 | 89 | 1010.9 |
| 20260903123838 | 78 | 289 | 0.0 | 0.0 | 0.00 | 0.00 | 0.00 | 89 | 1011.0 |
| 20260903123733 | 78 | 289 | 0.0 | 0.0 | 0.00 | 0.00 | 0.00 | 89 | 1010.9 |
| 20260903123628 | 78 | 288 | 0.0 | 0.0 | 0.00 | 0.00 | 0.00 | 89 | 1011.0 |
| 20260903123522 | 78 | 289 | 0.0 | 0.0 | 0.00 | 0.00 | 0.00 | 89 | 1011.0 |
| 20260903123415 | 78 | 290 | 0.0 | 0.0 | 0.00 | 0.00 | 0.00 | 89 | 1011.1 |
| 20260903123309 | 78 | 290 | 0.0 | 0.0 | 0.00 | 0.00 | 0.00 | 89 | 1011.1 |
| 20260903123206 | 78 | 289 | 0.0 | 0.0 | 0.00 | 0.00 | 0.00 | 90 | 1011.1 |
| 20260903123103 | 78 | 282 | 0.0 | 0.0 | 0.00 | 0.00 | 0.00 | 90 | 1011.1 |
| 20260903122959 | 78 | 282 | 0.0 | 0.0 | 0.00 | 0.00 | 0.00 | 90 | 1011.1 |
| 20260903122852 | 78 | 282 | 0.0 | 0.0 | 0.00 | 0.00 | 0.00 | 90 | 1011.1 |
| 20260903122528 | 78 | 282 | 0.0 | 0.0 | 0.00 | 0.00 | 0.00 | 91 | 1011.1 |
| 20260903122425 | 78 | 282 | 0.0 | 0.0 | 0.00 | 0.00 | 0.00 | 92 | 1011.1 |
| 20260903122318 | 78 | 282 | 0.0 | 0.0 | 0.00 | 0.00 | 0.00 | 92 | 1011.1 |
| 20260903122211 | 78 | 282 | 0.0 | 0.0 | 0.00 | 0.00 | 0.00 | 92 | 1011.1 |
| 20260903122108 | 78 | 282 | 0.0 | 0.0 | 0.00 | 0.00 | 0.00 | 92 | 1011.1 |
| 20260903121748 | 77 | 282 | 0.0 | 0.0 | 0.00 | 0.00 | 0.00 | 92 | 1011.0 |
| 20260903121640 | 77 | 282 | 0.0 | 0.0 | 0.00 | 0.00 | 0.00 | 92 | 1011.0 |
| 20260903121055 | 77 | 282 | 0.0 | 0.0 | 0.00 | 0.00 | 0.00 | 93 | 1011.0 |
| 20260903120950 | 77 | 282 | 0.0 | 0.0 | 0.00 | 0.00 | 0.00 | 93 | 1011.0 |
| 20260903120401 | 76 | 282 | 0.0 | 0.0 | 0.00 | 0.00 | 0.00 | 94 | 1011.0 |
| 20260903120257 | 76 | 282 | 0.0 | 0.0 | 0.00 | 0.00 | 0.00 | 94 | 1011.0 |
| 20260903120150 | 76 | 282 | 0.0 | 0.0 | 0.00 | 0.00 | 0.00 | 94 | 1011.0 |
| 20260903120045 | 76 | 282 | 0.0 | 0.0 | 0.00 | 0.00 | 0.00 | 94 | 1011.0 |
| 20260903115941 | 76 | 282 | 0.0 | 0.0 | 0.00 | 0.00 | 0.00 | 93 | 1011.0 |
| 20260903115838 | 76 | 282 | 0.0 | 0.0 | 0.00 | 0.00 | 0.00 | 93 | 1011.0 |
| 20260903115733 | 75 | 282 | 0.0 | 0.0 | 0.00 | 0.00 | 0.00 | 93 | 1011.0 |
| 20260903115630 | 75 | 282 | 0.0 | 0.0 | 0.00 | 0.00 | 0.00 | 93 | 1010.9 |
| 20260903115523 | 75 | 282 | 0.0 | 0.0 | 0.00 | 0.00 | 0.00 | 93 | 1010.9 |
| 20260903115154 | 75 | 282 | 0.0 | 0.0 | 0.00 | 0.00 | 0.00 | 93 | 1010.9 |
| 20260903115051 | 75 | 282 | 0.0 | 0.0 | 0.00 | 0.00 | 0.00 | 93 | 1010.8 |
| 20260903114722 | 75 | 282 | 0.0 | 0.0 | 0.00 | 0.00 | 0.00 | 93 | 1010.8 |
| 20260903114616 | 75 | 282 | 0.0 | 0.0 | 0.00 | 0.00 | 0.00 | 93 | 1010.8 |
| 20260903114513 | 75 | 282 | 0.0 | 0.0 | 0.00 | 0.00 | 0.00 | 93 | 1010.7 |
| 20260903114146 | 75 | 282 | 0.0 | 0.0 | 0.00 | 0.00 | 0.00 | 92 | 1010.7 |
| 20260903114044 | 75 | 282 | 0.0 | 0.0 | 0.00 | 0.00 | 0.00 | 92 | 1010.7 |
| 20260903113939 | 75 | 282 | 0.0 | 0.0 | 0.00 | 0.00 | 0.00 | 92 | 1010.7 |
| 20260903113833 | 75 | 282 | 0.0 | 0.0 | 0.00 | 0.00 | 0.00 | 92 | 1010.7 |
| 20260903113728 | 75 | 282 | 0.0 | 0.0 | 0.00 | 0.00 | 0.00 | 92 | 1010.7 |
| 20260903113622 | 75 | 282 | 0.0 | 0.0 | 0.00 | 0.00 | 0.00 | 92 | 1010.7 |
| 20260903113520 | 75 | 282 | 0.0 | 0.0 | 0.00 | 0.00 | 0.00 | 92 | 1010.7 |
| 20260903113412 | 75 | 282 | 0.0 | 0.0 | 0.00 | 0.00 | 0.00 | 92 | 1010.7 |
| 20260903113307 | 75 | 282 | 0.0 | 0.0 | 0.00 | 0.00 | 0.00 | 92 | 1010.7 |
| 20260903113204 | 75 | 282 | 0.0 | 0.0 | 0.00 | 0.00 | 0.00 | 92 | 1010.7 |
| 20260903113101 | 75 | 282 | 0.0 | 0.0 | 0.00 | 0.00 | 0.00 | 92 | 1010.7 |
| 20260903112959 | 75 | 282 | 0.0 | 0.0 | 0.00 | 0.00 | 0.00 | 92 | 1010.7 |
| 20260903112856 | 75 | 282 | 0.0 | 0.0 | 0.00 | 0.00 | 0.00 | 92 | 1010.7 |
| 20260903112751 | 75 | 282 | 0.0 | 0.0 | 0.00 | 0.00 | 0.00 | 92 | 1010.7 |
| 20260903112647 | 75 | 282 | 0.0 | 0.0 | 0.00 | 0.00 | 0.00 | 92 | 1010.7 |
| 20260903112540 | 75 | 282 | 0.0 | 0.0 | 0.00 | 0.00 | 0.00 | 92 | 1010.7 |
| 20260903112438 | 75 | 282 | 0.0 | 0.0 | 0.00 | 0.00 | 0.00 | 92 | 1010.7 |
| 20260903112333 | 75 | 282 | 0.0 | 0.0 | 0.00 | 0.00 | 0.00 | 92 | 1010.7 |
| 20260903112228 | 75 | 282 | 0.0 | 0.0 | 0.00 | 0.00 | 0.00 | 92 | 1010.7 |
| 20260903112126 | 75 | 282 | 0.0 | 0.0 | 0.00 | 0.00 | 0.00 | 92 | 1010.7 |
| 20260903112022 | 75 | 282 | 0.0 | 0.0 | 0.00 | 0.00 | 0.00 | 92 | 1010.7 |
| 20260903111916 | 75 | 282 | 0.0 | 0.0 | 0.00 | 0.00 | 0.00 | 92 | 1010.7 |
| 20260903111810 | 75 | 282 | 0.0 | 0.0 | 0.00 | 0.00 | 0.00 | 93 | 1010.7 |
| 20260903111704 | 75 | 282 | 0.0 | 0.0 | 0.00 | 0.00 | 0.00 | 93 | 1010.6 |
| 20260903111338 | 75 | 282 | 0.0 | 0.0 | 0.00 | 0.00 | 0.00 | 93 | 1010.6 |
| 20260903111232 | 75 | 282 | 0.0 | 0.0 | 0.00 | 0.00 | 0.00 | 93 | 1010.6 |
| 20260903111127 | 75 | 281 | 0.0 | 0.0 | 0.00 | 0.00 | 0.00 | 92 | 1010.6 |
| 20260903111019 | 75 | 281 | 0.0 | 0.0 | 0.00 | 0.00 | 0.00 | 93 | 1010.6 |
| 20260903110916 | 75 | 281 | 0.0 | 0.0 | 0.00 | 0.00 | 0.00 | 93 | 1010.6 |
| 20260903110338 | 75 | 281 | 0.0 | 0.0 | 0.00 | 0.00 | 0.00 | 93 | 1010.5 |
| 20260903110232 | 75 | 281 | 0.0 | 0.0 | 0.00 | 0.00 | 0.00 | 93 | 1010.5 |
| 20260903110125 | 75 | 281 | 0.0 | 0.0 | 0.00 | 0.00 | 0.00 | 93 | 1010.4 |
| 20260903110022 | 75 | 281 | 0.0 | 0.0 | 0.00 | 0.00 | 0.00 | 93 | 1010.5 |
| 20260903105656 | 75 | 281 | 0.0 | 0.0 | 0.00 | 0.00 | 0.00 | 93 | 1010.4 |
| 20260903105551 | 75 | 281 | 0.0 | 0.0 | 0.00 | 0.00 | 0.00 | 93 | 1010.4 |
| 20260903105445 | 75 | 281 | 0.0 | 0.0 | 0.00 | 0.00 | 0.00 | 93 | 1010.4 |
| 20260903105340 | 75 | 281 | 0.0 | 0.0 | 0.00 | 0.00 | 0.00 | 93 | 1010.4 |
| 20260903105237 | 75 | 281 | 0.0 | 0.0 | 0.00 | 0.00 | 0.00 | 93 | 1010.4 |
| 20260903105135 | 75 | 281 | 0.0 | 0.0 | 0.00 | 0.00 | 0.00 | 93 | 1010.4 |
| 20260903105031 | 75 | 281 | 0.0 | 0.0 | 0.00 | 0.00 | 0.00 | 93 | 1010.4 |
| 20260903104924 | 75 | 281 | 0.0 | 0.0 | 0.00 | 0.00 | 0.00 | 93 | 1010.4 |
| 20260903104821 | 75 | 281 | 0.0 | 0.0 | 0.00 | 0.00 | 0.00 | 93 | 1010.4 |
| 20260903104714 | 75 | 281 | 0.0 | 0.0 | 0.00 | 0.00 | 0.00 | 93 | 1010.4 |
| 20260903104607 | 75 | 281 | 0.0 | 0.0 | 0.00 | 0.00 | 0.00 | 93 | 1010.3 |
| 20260903104502 | 75 | 281 | 0.0 | 0.0 | 0.00 | 0.00 | 0.00 | 93 | 1010.3 |
| 20260903104356 | 75 | 281 | 0.0 | 0.0 | 0.00 | 0.00 | 0.00 | 93 | 1010.4 |
| 20260903104250 | 75 | 281 | 0.0 | 0.0 | 0.00 | 0.00 | 0.00 | 93 | 1010.4 |
| 20260903104146 | 75 | 281 | 0.0 | 0.0 | 0.00 | 0.00 | 0.00 | 93 | 1010.4 |
| 20260903104044 | 75 | 281 | 0.0 | 0.0 | 0.00 | 0.00 | 0.00 | 93 | 1010.3 |
| 20260903103936 | 75 | 281 | 0.0 | 0.0 | 0.00 | 0.00 | 0.00 | 93 | 1010.4 |
| 20260903103832 | 75 | 281 | 0.0 | 0.0 | 0.00 | 0.00 | 0.00 | 93 | 1010.4 |
| 20260903103505 | 75 | 281 | 0.0 | 0.0 | 0.00 | 0.00 | 0.00 | 93 | 1010.4 |
| 20260903103136 | 75 | 281 | 0.0 | 0.0 | 0.00 | 0.00 | 0.00 | 93 | 1010.4 |
| 20260903103031 | 75 | 281 | 0.0 | 0.0 | 0.00 | 0.00 | 0.00 | 93 | 1010.4 |
| 20260903102447 | 75 | 282 | 0.0 | 0.0 | 0.00 | 0.00 | 0.00 | 93 | 1010.4 |
| 20260903102126 | 75 | 282 | 0.0 | 0.0 | 0.00 | 0.00 | 0.00 | 93 | 1010.4 |
| 20260903102021 | 75 | 282 | 0.0 | 0.0 | 0.00 | 0.00 | 0.00 | 93 | 1010.4 |
| 20260903101918 | 75 | 282 | 0.0 | 0.0 | 0.00 | 0.00 | 0.00 | 93 | 1010.4 |
| 20260903101810 | 75 | 282 | 0.0 | 0.0 | 0.00 | 0.00 | 0.00 | 93 | 1010.4 |
| 20260903101703 | 75 | 282 | 0.0 | 0.0 | 0.00 | 0.00 | 0.00 | 93 | 1010.5 |
| 20260903101559 | 75 | 282 | 0.0 | 0.0 | 0.00 | 0.00 | 0.00 | 93 | 1010.4 |
| 20260903101452 | 75 | 282 | 0.0 | 0.0 | 0.00 | 0.00 | 0.00 | 93 | 1010.4 |
| 20260903101348 | 75 | 282 | 0.0 | 0.0 | 0.00 | 0.00 | 0.00 | 94 | 1010.4 |
| 20260903101020 | 74 | 284 | 0.0 | 0.0 | 0.00 | 0.00 | 0.00 | 93 | 1010.4 |
| 20260903100652 | 74 | 285 | 0.0 | 0.0 | 0.00 | 0.00 | 0.00 | 93 | 1010.4 |
| 20260903100550 | 74 | 285 | 0.0 | 0.0 | 0.00 | 0.00 | 0.00 | 93 | 1010.4 |
| 20260903100224 | 74 | 285 | 0.0 | 0.0 | 0.00 | 0.00 | 0.00 | 93 | 1010.4 |
| 20260903095904 | 74 | 285 | 0.0 | 0.0 | 0.00 | 0.00 | 0.00 | 93 | 1010.4 |
| 20260903095756 | 74 | 285 | 0.0 | 0.0 | 0.00 | 0.00 | 0.00 | 93 | 1010.3 |
| 20260903095654 | 74 | 285 | 0.0 | 0.0 | 0.00 | 0.00 | 0.00 | 93 | 1010.3 |
| 20260903095115 | 74 | 285 | 0.0 | 0.0 | 0.00 | 0.00 | 0.00 | 92 | 1010.3 |
| 20260903095010 | 74 | 285 | 0.0 | 0.0 | 0.00 | 0.00 | 0.00 | 92 | 1010.3 |
| 20260903094904 | 74 | 285 | 0.0 | 0.0 | 0.00 | 0.00 | 0.00 | 92 | 1010.3 |
| 20260903094800 | 74 | 285 | 0.0 | 0.0 | 0.00 | 0.00 | 0.00 | 92 | 1010.3 |
| 20260903094655 | 74 | 285 | 0.0 | 0.0 | 0.00 | 0.00 | 0.00 | 92 | 1010.3 |
| 20260903094108 | 74 | 285 | 0.0 | 0.0 | 0.00 | 0.00 | 0.00 | 92 | 1010.3 |
| 20260903094004 | 74 | 285 | 0.0 | 0.0 | 0.00 | 0.00 | 0.00 | 92 | 1010.3 |
| 20260903093858 | 74 | 285 | 0.0 | 0.0 | 0.00 | 0.00 | 0.00 | 92 | 1010.3 |
| 20260903093751 | 74 | 285 | 0.0 | 0.0 | 0.00 | 0.00 | 0.00 | 92 | 1010.3 |
| 20260903093650 | 74 | 285 | 0.0 | 0.0 | 0.00 | 0.00 | 0.00 | 92 | 1010.3 |
| 20260903093547 | 74 | 285 | 0.0 | 0.0 | 0.00 | 0.00 | 0.00 | 92 | 1010.3 |
| 20260903093443 | 74 | 285 | 0.0 | 0.0 | 0.00 | 0.00 | 0.00 | 92 | 1010.2 |
| 20260903093123 | 75 | 285 | 0.0 | 0.0 | 0.00 | 0.00 | 0.00 | 92 | 1010.2 |
| 20260903093017 | 75 | 285 | 0.0 | 0.0 | 0.00 | 0.00 | 0.00 | 92 | 1010.2 |
| 20260903092912 | 75 | 285 | 0.0 | 0.0 | 0.00 | 0.00 | 0.00 | 92 | 1010.2 |
| 20260903092810 | 75 | 285 | 0.0 | 0.0 | 0.00 | 0.00 | 0.00 | 92 | 1010.3 |
| 20260903092703 | 75 | 285 | 0.0 | 0.0 | 0.00 | 0.00 | 0.00 | 92 | 1010.3 |
| 20260903092557 | 75 | 285 | 0.0 | 0.0 | 0.00 | 0.00 | 0.00 | 92 | 1010.2 |
| 20260903092453 | 75 | 285 | 0.0 | 0.0 | 0.00 | 0.00 | 0.00 | 92 | 1010.1 |
| 20260903092351 | 75 | 285 | 0.0 | 0.0 | 0.00 | 0.00 | 0.00 | 92 | 1010.2 |
| 20260903092023 | 75 | 285 | 0.0 | 0.0 | 0.00 | 0.00 | 0.00 | 92 | 1010.2 |
| 20260903091921 | 75 | 285 | 0.0 | 0.0 | 0.00 | 0.00 | 0.00 | 92 | 1010.2 |
| 20260903091556 | 75 | 285 | 0.0 | 0.0 | 0.00 | 0.00 | 0.00 | 92 | 1010.2 |
| 20260903091451 | 74 | 285 | 0.0 | 0.0 | 0.00 | 0.00 | 0.00 | 92 | 1010.2 |
| 20260903091344 | 74 | 285 | 0.0 | 0.0 | 0.00 | 0.00 | 0.00 | 92 | 1010.2 |
| 20260903091239 | 74 | 285 | 0.0 | 0.0 | 0.00 | 0.00 | 0.00 | 92 | 1010.1 |
| 20260903091136 | 74 | 285 | 0.0 | 0.0 | 0.00 | 0.00 | 0.00 | 92 | 1010.2 |
| 20260903091030 | 74 | 285 | 0.0 | 0.0 | 0.00 | 0.00 | 0.00 | 92 | 1010.2 |
| 20260903090925 | 74 | 285 | 0.0 | 0.0 | 0.00 | 0.00 | 0.00 | 92 | 1010.2 |
| 20260903090823 | 74 | 285 | 0.0 | 0.0 | 0.00 | 0.00 | 0.00 | 92 | 1010.2 |
| 20260903090457 | 75 | 285 | 0.0 | 0.0 | 0.00 | 0.00 | 0.00 | 91 | 1010.2 |
| 20260903090347 | 75 | 285 | 0.0 | 0.0 | 0.00 | 0.00 | 0.00 | 91 | 1010.2 |
| 20260903090244 | 75 | 285 | 0.0 | 0.0 | 0.00 | 0.00 | 0.00 | 91 | 1010.2 |
| 20260903090140 | 75 | 285 | 0.0 | 0.0 | 0.00 | 0.00 | 0.00 | 91 | 1010.2 |
| 20260903090037 | 75 | 285 | 0.0 | 0.0 | 0.00 | 0.00 | 0.00 | 91 | 1010.2 |
| 20260903085934 | 75 | 285 | 0.0 | 0.0 | 0.00 | 0.00 | 0.00 | 91 | 1010.2 |
| 20260903085830 | 75 | 285 | 0.0 | 0.0 | 0.00 | 0.00 | 0.00 | 91 | 1010.2 |
| 20260903085724 | 75 | 285 | 0.0 | 0.0 | 0.00 | 0.00 | 0.00 | 91 | 1010.2 |
| 20260903085619 | 75 | 285 | 0.0 | 0.0 | 0.00 | 0.00 | 0.00 | 91 | 1010.2 |
| 20260903085516 | 75 | 285 | 0.0 | 0.0 | 0.00 | 0.00 | 0.00 | 91 | 1010.1 |
| 20260903085410 | 75 | 285 | 0.0 | 0.0 | 0.00 | 0.00 | 0.00 | 91 | 1010.2 |
| 20260903085306 | 75 | 285 | 0.0 | 0.0 | 0.00 | 0.00 | 0.00 | 91 | 1010.1 |
| 20260903084937 | 75 | 285 | 0.0 | 0.0 | 0.00 | 0.00 | 0.00 | 91 | 1010.1 |
| 20260903084835 | 75 | 285 | 0.0 | 0.0 | 0.00 | 0.00 | 0.00 | 91 | 1010.1 |
| 20260903084028 | 75 | 285 | 0.0 | 0.0 | 0.00 | 0.00 | 0.00 | 91 | 1010.1 |
| 20260903083922 | 75 | 285 | 0.0 | 0.0 | 0.00 | 0.00 | 0.00 | 91 | 1010.1 |
| 20260903083815 | 75 | 285 | 0.0 | 0.0 | 0.00 | 0.00 | 0.00 | 91 | 1010.1 |
| 20260903083709 | 75 | 285 | 0.0 | 0.0 | 0.00 | 0.00 | 0.00 | 91 | 1010.1 |
| 20260903083346 | 75 | 285 | 0.0 | 0.0 | 0.00 | 0.00 | 0.00 | 91 | 1010.2 |
| 20260903083021 | 76 | 285 | 0.0 | 0.0 | 0.00 | 0.00 | 0.00 | 91 | 1010.2 |
| 20260903082914 | 76 | 285 | 0.0 | 0.0 | 0.00 | 0.00 | 0.00 | 91 | 1010.2 |
| 20260903082551 | 76 | 285 | 0.0 | 0.0 | 0.00 | 0.00 | 0.00 | 91 | 1010.2 |
| 20260903082446 | 76 | 285 | 0.0 | 0.0 | 0.00 | 0.00 | 0.00 | 91 | 1010.2 |
| 20260903082341 | 76 | 285 | 0.0 | 0.0 | 0.00 | 0.00 | 0.00 | 91 | 1010.2 |
| 20260903082012 | 76 | 285 | 0.0 | 0.0 | 0.00 | 0.00 | 0.00 | 91 | 1010.2 |
| 20260903081906 | 76 | 285 | 0.0 | 0.0 | 0.00 | 0.00 | 0.00 | 91 | 1010.2 |
| 20260903081805 | 76 | 285 | 0.0 | 0.0 | 0.00 | 0.00 | 0.00 | 91 | 1010.3 |
| 20260903081700 | 76 | 285 | 0.0 | 0.0 | 0.00 | 0.00 | 0.00 | 91 | 1010.2 |
| 20260903081557 | 76 | 285 | 0.0 | 0.0 | 0.00 | 0.00 | 0.00 | 91 | 1010.2 |
| 20260903081449 | 76 | 285 | 0.0 | 0.0 | 0.00 | 0.00 | 0.00 | 91 | 1010.2 |
| 20260903081344 | 76 | 285 | 0.0 | 0.0 | 0.00 | 0.00 | 0.00 | 91 | 1010.2 |
| 20260903081238 | 76 | 285 | 0.0 | 0.0 | 0.00 | 0.00 | 0.00 | 91 | 1010.2 |
| 20260903081133 | 76 | 285 | 0.0 | 0.0 | 0.00 | 0.00 | 0.00 | 91 | 1010.3 |
| 20260903080555 | 76 | 285 | 0.0 | 0.0 | 0.00 | 0.00 | 0.00 | 90 | 1010.2 |
| 20260903080447 | 76 | 285 | 0.0 | 0.0 | 0.00 | 0.00 | 0.00 | 90 | 1010.2 |
| 20260903080346 | 76 | 285 | 0.0 | 0.0 | 0.00 | 0.00 | 0.00 | 90 | 1010.2 |
| 20260903080022 | 76 | 285 | 0.0 | 0.0 | 0.00 | 0.00 | 0.00 | 90 | 1010.2 |
| 20260903075914 | 76 | 285 | 0.0 | 0.0 | 0.00 | 0.00 | 0.00 | 90 | 1010.2 |
| 20260903075809 | 76 | 285 | 0.0 | 0.0 | 0.00 | 0.00 | 0.00 | 91 | 1010.2 |
| 20260903075701 | 76 | 285 | 0.0 | 0.0 | 0.00 | 0.00 | 0.00 | 91 | 1010.2 |
| 20260903075555 | 76 | 285 | 0.0 | 0.0 | 0.00 | 0.00 | 0.00 | 91 | 1010.2 |
| 20260903075452 | 76 | 285 | 0.0 | 0.0 | 0.00 | 0.00 | 0.00 | 90 | 1010.2 |
| 20260903075125 | 77 | 285 | 0.0 | 0.0 | 0.00 | 0.00 | 0.00 | 90 | 1010.2 |
| 20260903075023 | 77 | 285 | 0.0 | 0.0 | 0.00 | 0.00 | 0.00 | 90 | 1010.2 |
| 20260903074656 | 77 | 285 | 0.0 | 0.0 | 0.00 | 0.00 | 0.00 | 91 | 1010.1 |
| 20260903074549 | 77 | 285 | 0.0 | 0.0 | 0.00 | 0.00 | 0.00 | 91 | 1010.1 |
| 20260903074444 | 77 | 285 | 0.0 | 0.0 | 0.00 | 0.00 | 0.00 | 91 | 1010.1 |
| 20260903074338 | 77 | 284 | 0.0 | 0.0 | 0.00 | 0.00 | 0.00 | 91 | 1010.1 |
| 20260903074012 | 77 | 284 | 0.0 | 0.0 | 0.00 | 0.00 | 0.00 | 91 | 1010.1 |
| 20260903073905 | 77 | 284 | 0.0 | 0.0 | 0.00 | 0.00 | 0.00 | 91 | 1010.1 |
| 20260903073800 | 77 | 284 | 0.0 | 0.0 | 0.00 | 0.00 | 0.00 | 91 | 1010.1 |
| 20260903073657 | 77 | 284 | 0.0 | 0.0 | 0.00 | 0.00 | 0.00 | 91 | 1010.1 |
| 20260903073551 | 77 | 284 | 0.0 | 0.0 | 0.00 | 0.00 | 0.00 | 91 | 1010.1 |
| 20260903073446 | 77 | 284 | 0.0 | 0.0 | 0.00 | 0.00 | 0.00 | 91 | 1010.1 |
| 20260903073343 | 77 | 284 | 0.0 | 0.0 | 0.00 | 0.00 | 0.00 | 91 | 1010.0 |
| 20260903073017 | 76 | 285 | 0.0 | 0.0 | 0.00 | 0.00 | 0.00 | 91 | 1010.0 |
| 20260903072652 | 76 | 285 | 0.0 | 0.0 | 0.00 | 0.00 | 0.00 | 91 | 1010.0 |
| 20260903072545 | 76 | 285 | 0.0 | 0.0 | 0.00 | 0.00 | 0.00 | 91 | 1010.0 |
| 20260903072438 | 76 | 285 | 0.0 | 0.0 | 0.00 | 0.00 | 0.00 | 91 | 1010.0 |
| 20260903072333 | 76 | 285 | 0.0 | 0.0 | 0.00 | 0.00 | 0.00 | 91 | 1010.0 |
| 20260903072230 | 76 | 285 | 0.0 | 0.0 | 0.00 | 0.00 | 0.00 | 91 | 1010.0 |
| 20260903072123 | 76 | 285 | 0.0 | 0.0 | 0.00 | 0.00 | 0.00 | 91 | 1010.0 |
| 20260903072017 | 76 | 285 | 0.0 | 0.0 | 0.00 | 0.00 | 0.00 | 91 | 1010.1 |
| 20260903071915 | 76 | 285 | 0.0 | 0.0 | 0.00 | 0.00 | 0.00 | 91 | 1010.0 |
| 20260903071811 | 76 | 285 | 0.0 | 0.0 | 0.00 | 0.00 | 0.00 | 91 | 1010.0 |
| 20260903071443 | 76 | 285 | 0.0 | 0.0 | 0.00 | 0.00 | 0.00 | 90 | 1010.0 |
| 20260903071340 | 76 | 285 | 0.0 | 0.0 | 0.00 | 0.00 | 0.00 | 91 | 1010.0 |
| 20260903071236 | 76 | 285 | 0.0 | 0.0 | 0.00 | 0.00 | 0.00 | 91 | 1010.0 |
| 20260903071133 | 76 | 285 | 0.0 | 0.0 | 0.00 | 0.00 | 0.00 | 91 | 1009.9 |
| 20260903071025 | 76 | 285 | 0.0 | 0.0 | 0.00 | 0.00 | 0.00 | 90 | 1009.9 |
| 20260903070920 | 76 | 285 | 0.0 | 0.0 | 0.00 | 0.00 | 0.00 | 90 | 1010.0 |
| 20260903070815 | 76 | 285 | 0.0 | 0.0 | 0.00 | 0.00 | 0.00 | 90 | 1009.9 |
| 20260903070708 | 76 | 285 | 0.0 | 0.0 | 0.00 | 0.00 | 0.00 | 90 | 1009.9 |
| 20260903070602 | 76 | 285 | 0.0 | 0.0 | 0.00 | 0.00 | 0.00 | 90 | 1009.9 |
| 20260903070454 | 76 | 285 | 0.0 | 0.0 | 0.00 | 0.00 | 0.00 | 90 | 1009.9 |
| 20260903070349 | 76 | 285 | 0.0 | 0.0 | 0.00 | 0.00 | 0.00 | 90 | 1009.9 |
| 20260903070246 | 76 | 285 | 0.0 | 0.0 | 0.00 | 0.00 | 0.00 | 90 | 1009.9 |
| 20260903070139 | 76 | 285 | 0.0 | 0.0 | 0.00 | 0.00 | 0.00 | 90 | 1009.9 |
| 20260903065812 | 76 | 285 | 0.0 | 0.0 | 0.00 | 0.00 | 0.00 | 90 | 1009.9 |
| 20260903065708 | 76 | 285 | 0.0 | 0.0 | 0.00 | 0.00 | 0.00 | 90 | 1009.9 |
| 20260903065604 | 76 | 285 | 0.0 | 0.0 | 0.00 | 0.00 | 0.00 | 90 | 1009.9 |
| 20260903065501 | 76 | 285 | 0.0 | 0.0 | 0.00 | 0.00 | 0.00 | 90 | 1009.9 |
| 20260903065359 | 76 | 285 | 0.0 | 0.0 | 0.00 | 0.00 | 0.00 | 90 | 1009.9 |
| 20260903065253 | 76 | 285 | 0.0 | 0.0 | 0.00 | 0.00 | 0.00 | 90 | 1009.9 |
| 20260903065146 | 76 | 285 | 0.0 | 0.0 | 0.00 | 0.00 | 0.00 | 90 | 1009.9 |
| 20260903065042 | 76 | 285 | 0.0 | 0.0 | 0.00 | 0.00 | 0.00 | 90 | 1009.9 |
| 20260903064937 | 76 | 285 | 0.0 | 0.0 | 0.00 | 0.00 | 0.00 | 90 | 1009.9 |
| 20260903064831 | 76 | 285 | 0.0 | 0.0 | 0.00 | 0.00 | 0.00 | 90 | 1009.9 |
| 20260903064728 | 76 | 285 | 0.0 | 0.0 | 0.00 | 0.00 | 0.00 | 90 | 1009.9 |
| 20260903064620 | 76 | 285 | 0.0 | 0.0 | 0.00 | 0.00 | 0.00 | 90 | 1009.9 |
| 20260903064518 | 76 | 285 | 0.0 | 0.0 | 0.00 | 0.00 | 0.00 | 90 | 1009.9 |
| 20260903064414 | 76 | 285 | 0.0 | 0.0 | 0.00 | 0.00 | 0.00 | 90 | 1009.9 |
| 20260903064310 | 76 | 285 | 0.0 | 0.0 | 0.00 | 0.00 | 0.00 | 90 | 1009.9 |
| 20260903064206 | 76 | 285 | 0.0 | 0.0 | 0.00 | 0.00 | 0.00 | 90 | 1009.9 |
| 20260903063842 | 76 | 285 | 0.0 | 0.0 | 0.00 | 0.00 | 0.00 | 90 | 1009.9 |
| 20260903063738 | 76 | 285 | 0.0 | 0.0 | 0.00 | 0.00 | 0.00 | 90 | 1009.9 |
| 20260903063636 | 76 | 285 | 0.0 | 0.0 | 0.00 | 0.00 | 0.00 | 90 | 1009.8 |
| 20260903063528 | 76 | 285 | 0.0 | 0.0 | 0.00 | 0.00 | 0.00 | 90 | 1009.8 |
| 20260903063421 | 76 | 285 | 0.0 | 0.0 | 0.00 | 0.00 | 0.00 | 89 | 1009.9 |
| 20260903063314 | 76 | 285 | 0.0 | 0.0 | 0.00 | 0.00 | 0.00 | 89 | 1009.9 |
| 20260903063211 | 76 | 285 | 0.0 | 0.0 | 0.00 | 0.00 | 0.00 | 89 | 1009.9 |
| 20260903063106 | 76 | 285 | 0.0 | 0.0 | 0.00 | 0.00 | 0.00 | 89 | 1009.8 |
| 20260903063003 | 76 | 285 | 0.0 | 0.0 | 0.00 | 0.00 | 0.00 | 89 | 1009.9 |
| 20260903062858 | 77 | 285 | 0.0 | 0.0 | 0.00 | 0.00 | 0.00 | 89 | 1009.9 |
| 20260903062750 | 77 | 285 | 0.0 | 0.0 | 0.00 | 0.00 | 0.00 | 89 | 1009.9 |
| 20260903062647 | 77 | 285 | 0.0 | 0.0 | 0.00 | 0.00 | 0.00 | 89 | 1009.9 |
| 20260903062322 | 77 | 285 | 0.0 | 0.0 | 0.00 | 0.00 | 0.00 | 89 | 1009.8 |
| 20260903062217 | 77 | 285 | 0.0 | 0.0 | 0.00 | 0.00 | 0.00 | 89 | 1009.9 |
| 20260903062110 | 77 | 285 | 0.0 | 0.0 | 0.00 | 0.00 | 0.00 | 89 | 1009.8 |
| 20260903062008 | 77 | 285 | 0.0 | 0.0 | 0.00 | 0.00 | 0.00 | 89 | 1009.9 |
| 20260903061906 | 77 | 285 | 0.0 | 0.0 | 0.00 | 0.00 | 0.00 | 89 | 1009.9 |
| 20260903061800 | 77 | 285 | 0.0 | 0.0 | 0.00 | 0.00 | 0.00 | 89 | 1009.8 |
| 20260903061654 | 77 | 285 | 0.0 | 0.0 | 0.00 | 0.00 | 0.00 | 89 | 1009.8 |
| 20260903061549 | 77 | 285 | 0.0 | 0.0 | 0.00 | 0.00 | 0.00 | 89 | 1009.8 |
| 20260903061445 | 77 | 285 | 0.0 | 0.0 | 0.00 | 0.00 | 0.00 | 89 | 1009.8 |
| 20260903061338 | 77 | 285 | 0.0 | 0.0 | 0.00 | 0.00 | 0.00 | 89 | 1009.8 |
| 20260903061232 | 77 | 285 | 0.0 | 0.0 | 0.00 | 0.00 | 0.00 | 89 | 1009.8 |
| 20260903061129 | 77 | 285 | 0.0 | 0.0 | 0.00 | 0.00 | 0.00 | 89 | 1009.8 |
| 20260903061027 | 77 | 285 | 0.0 | 0.0 | 0.00 | 0.00 | 0.00 | 89 | 1009.8 |
| 20260903060700 | 77 | 285 | 0.0 | 0.0 | 0.00 | 0.00 | 0.00 | 89 | 1009.8 |
| 20260903060553 | 77 | 285 | 0.0 | 0.0 | 0.00 | 0.00 | 0.00 | 89 | 1009.8 |
| 20260903060449 | 77 | 285 | 0.0 | 0.0 | 0.00 | 0.00 | 0.00 | 89 | 1009.9 |
| 20260903060344 | 77 | 285 | 0.0 | 0.0 | 0.00 | 0.00 | 0.00 | 89 | 1009.9 |
| 20260903060242 | 77 | 285 | 0.0 | 0.0 | 0.00 | 0.00 | 0.00 | 89 | 1009.9 |
| 20260903060139 | 77 | 285 | 0.0 | 0.0 | 0.00 | 0.00 | 0.00 | 89 | 1009.9 |
| 20260903060038 | 77 | 285 | 0.0 | 0.0 | 0.00 | 0.00 | 0.00 | 89 | 1009.9 |
| 20260903055931 | 77 | 285 | 0.0 | 0.0 | 0.00 | 0.00 | 0.00 | 89 | 1009.9 |
| 20260903055822 | 77 | 285 | 0.0 | 0.0 | 0.00 | 0.00 | 0.00 | 89 | 1010.0 |
| 20260903055456 | 77 | 285 | 0.0 | 0.0 | 0.00 | 0.00 | 0.00 | 88 | 1010.0 |
| 20260903055351 | 77 | 285 | 0.0 | 0.0 | 0.00 | 0.00 | 0.00 | 88 | 1010.0 |
| 20260903055243 | 77 | 285 | 0.0 | 0.0 | 0.00 | 0.00 | 0.00 | 88 | 1010.0 |
| 20260903055141 | 77 | 285 | 0.0 | 0.0 | 0.00 | 0.00 | 0.00 | 88 | 1010.0 |
| 20260903055036 | 77 | 285 | 0.0 | 0.0 | 0.00 | 0.00 | 0.00 | 88 | 1010.0 |
| 20260903054933 | 77 | 285 | 0.0 | 0.0 | 0.00 | 0.00 | 0.00 | 88 | 1010.0 |
| 20260903053905 | 78 | 285 | 0.0 | 0.0 | 0.00 | 0.00 | 0.00 | 86 | 1009.9 |
| 20260903053759 | 78 | 285 | 0.0 | 0.0 | 0.00 | 0.00 | 0.00 | 86 | 1010.0 |
| 20260903053655 | 78 | 285 | 0.0 | 0.0 | 0.00 | 0.00 | 0.00 | 86 | 1010.0 |
| 20260903053551 | 78 | 285 | 0.0 | 0.0 | 0.00 | 0.00 | 0.00 | 86 | 1010.0 |
| 20260903053447 | 78 | 285 | 0.0 | 0.0 | 0.00 | 0.00 | 0.00 | 86 | 1010.0 |
| 20260903053341 | 78 | 285 | 0.0 | 0.0 | 0.00 | 0.00 | 0.00 | 86 | 1010.0 |
| 20260903053237 | 78 | 285 | 0.0 | 0.0 | 0.00 | 0.00 | 0.00 | 86 | 1010.0 |
| 20260903052912 | 78 | 285 | 0.0 | 0.0 | 0.00 | 0.00 | 0.00 | 86 | 1010.0 |
| 20260903052808 | 78 | 285 | 0.0 | 0.0 | 0.00 | 0.00 | 0.00 | 86 | 1010.0 |
| 20260903052705 | 78 | 285 | 0.0 | 0.0 | 0.00 | 0.00 | 0.00 | 85 | 1010.0 |
| 20260903052557 | 79 | 285 | 0.0 | 0.0 | 0.00 | 0.00 | 0.00 | 85 | 1010.1 |
| 20260903052451 | 79 | 285 | 0.0 | 0.0 | 0.00 | 0.00 | 0.00 | 85 | 1010.0 |
| 20260903052346 | 79 | 285 | 0.0 | 0.0 | 0.00 | 0.00 | 0.00 | 85 | 1010.0 |
| 20260903052238 | 79 | 285 | 0.0 | 0.0 | 0.00 | 0.00 | 0.00 | 85 | 1010.0 |
| 20260903052133 | 79 | 285 | 0.0 | 0.0 | 0.00 | 0.00 | 0.00 | 85 | 1010.0 |
| 20260903052027 | 79 | 285 | 0.0 | 0.0 | 0.00 | 0.00 | 0.00 | 85 | 1010.0 |
| 20260903051659 | 79 | 285 | 0.0 | 0.0 | 0.00 | 0.00 | 0.00 | 84 | 1010.0 |
| 20260903051115 | 80 | 285 | 0.0 | 0.0 | 0.00 | 0.00 | 0.00 | 83 | 1010.0 |
| 20260903051010 | 80 | 285 | 0.0 | 0.0 | 0.00 | 0.00 | 0.00 | 83 | 1010.0 |
| 20260903050907 | 80 | 285 | 0.0 | 0.0 | 0.00 | 0.00 | 0.00 | 83 | 1010.0 |
| 20260903050542 | 80 | 285 | 0.0 | 0.0 | 0.00 | 0.00 | 0.00 | 83 | 1010.0 |
| 20260903050434 | 80 | 285 | 0.0 | 0.0 | 0.00 | 0.00 | 0.00 | 82 | 1009.9 |
| 20260903050330 | 80 | 285 | 0.0 | 0.0 | 0.00 | 0.00 | 0.00 | 82 | 1009.9 |
| 20260903050228 | 80 | 285 | 0.0 | 0.0 | 0.00 | 0.00 | 0.00 | 82 | 1009.9 |
| 20260903050125 | 80 | 285 | 0.0 | 0.0 | 0.00 | 0.00 | 0.00 | 82 | 1009.9 |
| 20260903050019 | 80 | 285 | 0.0 | 0.0 | 0.00 | 0.00 | 0.00 | 82 | 1009.8 |
| 20260903045914 | 80 | 285 | 0.0 | 0.0 | 0.00 | 0.00 | 0.00 | 82 | 1009.9 |
| 20260903045809 | 80 | 285 | 0.0 | 0.0 | 0.00 | 0.00 | 0.00 | 82 | 1009.9 |
| 20260903045707 | 81 | 285 | 0.0 | 0.0 | 0.00 | 0.00 | 0.00 | 82 | 1009.9 |
| 20260903045601 | 81 | 285 | 0.0 | 0.0 | 0.00 | 0.00 | 0.00 | 82 | 1009.9 |
| 20260903045454 | 81 | 285 | 0.0 | 0.0 | 0.00 | 0.00 | 0.00 | 82 | 1009.9 |
| 20260903045349 | 81 | 285 | 0.0 | 0.0 | 0.00 | 0.00 | 0.00 | 82 | 1009.9 |
| 20260903045242 | 81 | 285 | 0.0 | 0.0 | 0.00 | 0.00 | 0.00 | 82 | 1009.9 |
| 20260903045136 | 81 | 285 | 0.0 | 0.0 | 0.00 | 0.00 | 0.00 | 82 | 1009.9 |
| 20260903045030 | 81 | 285 | 0.0 | 0.0 | 0.00 | 0.00 | 0.00 | 82 | 1009.9 |
| 20260903044925 | 81 | 285 | 0.0 | 0.0 | 0.00 | 0.00 | 0.00 | 81 | 1009.9 |
| 20260903044822 | 81 | 285 | 0.0 | 0.0 | 0.00 | 0.00 | 0.00 | 81 | 1009.9 |
| 20260903044719 | 81 | 285 | 0.0 | 0.0 | 0.00 | 0.00 | 0.00 | 81 | 1009.9 |
| 20260903044613 | 81 | 285 | 0.0 | 0.0 | 0.00 | 0.00 | 0.00 | 81 | 1009.9 |
| 20260903044508 | 81 | 285 | 0.0 | 0.0 | 0.00 | 0.00 | 0.00 | 81 | 1009.9 |
| 20260903044402 | 81 | 285 | 0.0 | 0.0 | 0.00 | 0.00 | 0.00 | 81 | 1009.8 |
| 20260903044255 | 81 | 285 | 0.0 | 0.0 | 0.00 | 0.00 | 0.00 | 81 | 1009.7 |
| 20260903043932 | 81 | 285 | 0.0 | 0.0 | 0.00 | 0.00 | 0.00 | 81 | 1009.7 |
| 20260903043830 | 81 | 285 | 0.0 | 0.0 | 0.00 | 0.00 | 0.00 | 81 | 1009.7 |
| 20260903043725 | 81 | 285 | 0.0 | 0.0 | 0.00 | 0.00 | 0.00 | 81 | 1009.7 |
| 20260903043617 | 81 | 285 | 0.0 | 0.0 | 0.00 | 0.00 | 0.00 | 80 | 1009.7 |
| 20260903043249 | 82 | 285 | 0.0 | 0.0 | 0.00 | 0.00 | 0.00 | 80 | 1009.7 |
| 20260903042922 | 82 | 285 | 0.0 | 0.0 | 0.00 | 0.00 | 0.00 | 80 | 1009.7 |
| 20260903042817 | 82 | 286 | 0.0 | 0.0 | 0.00 | 0.00 | 0.00 | 80 | 1009.7 |
| 20260903042709 | 82 | 286 | 0.0 | 0.0 | 0.00 | 0.00 | 0.00 | 80 | 1009.7 |
| 20260903042121 | 82 | 286 | 0.0 | 0.0 | 0.00 | 0.00 | 0.00 | 80 | 1009.7 |
| 20260903042019 | 82 | 286 | 0.0 | 0.0 | 0.00 | 0.00 | 0.00 | 80 | 1009.7 |
| 20260903041917 | 82 | 286 | 0.0 | 0.0 | 0.00 | 0.00 | 0.00 | 80 | 1009.7 |
| 20260903041812 | 82 | 286 | 0.0 | 0.0 | 0.00 | 0.00 | 0.00 | 80 | 1009.7 |
| 20260903041708 | 82 | 286 | 0.0 | 0.0 | 0.00 | 0.00 | 0.00 | 80 | 1009.7 |
| 20260903041346 | 82 | 288 | 0.0 | 0.0 | 0.00 | 0.00 | 0.00 | 80 | 1009.7 |
| 20260903041239 | 82 | 288 | 0.0 | 0.0 | 0.00 | 0.00 | 0.00 | 79 | 1009.7 |
| 20260903041137 | 82 | 289 | 0.0 | 0.0 | 0.00 | 0.00 | 0.00 | 79 | 1009.7 |
| 20260903041034 | 82 | 290 | 0.0 | 0.0 | 0.00 | 0.00 | 0.00 | 80 | 1009.7 |
| 20260903040928 | 82 | 290 | 0.0 | 0.0 | 0.00 | 0.00 | 0.00 | 80 | 1009.7 |
| 20260903040825 | 82 | 290 | 0.0 | 0.0 | 0.00 | 0.00 | 0.00 | 79 | 1009.6 |
| 20260903040720 | 82 | 290 | 0.0 | 0.0 | 0.00 | 0.00 | 0.00 | 79 | 1009.6 |
| 20260903040617 | 82 | 290 | 0.0 | 0.0 | 0.00 | 0.00 | 0.00 | 79 | 1009.6 |
| 20260903040515 | 82 | 207 | 0.0 | 0.0 | 0.00 | 0.00 | 0.00 | 79 | 1009.6 |
| 20260903040412 | 82 | 273 | 0.0 | 0.0 | 0.00 | 0.00 | 0.00 | 79 | 1009.6 |
| 20260903040305 | 82 | 273 | 0.0 | 0.0 | 0.00 | 0.00 | 0.00 | 79 | 1009.5 |
| 20260903040159 | 82 | 273 | 0.0 | 0.0 | 0.00 | 0.00 | 0.00 | 80 | 1009.6 |
| 20260903040052 | 82 | 275 | 0.0 | 0.0 | 0.00 | 0.00 | 0.00 | 80 | 1009.6 |
| 20260903035948 | 82 | 275 | 0.0 | 0.0 | 0.00 | 0.00 | 0.00 | 80 | 1009.5 |
| 20260903035843 | 82 | 278 | 0.0 | 0.0 | 0.00 | 0.00 | 0.00 | 80 | 1009.6 |
| 20260903035737 | 82 | 277 | 0.0 | 0.0 | 0.00 | 0.00 | 0.00 | 80 | 1009.6 |
| 20260903035631 | 82 | 279 | 0.0 | 0.0 | 0.00 | 0.00 | 0.00 | 79 | 1009.5 |
| 20260903035527 | 82 | 267 | 0.0 | 0.0 | 0.00 | 0.00 | 0.00 | 79 | 1009.5 |
| 20260903035421 | 82 | 259 | 0.0 | 0.0 | 0.00 | 0.00 | 0.00 | 79 | 1009.5 |
| 20260903035316 | 82 | 266 | 0.0 | 0.0 | 0.00 | 0.00 | 0.00 | 79 | 1009.5 |
| 20260903035213 | 82 | 266 | 0.0 | 0.0 | 0.00 | 0.00 | 0.00 | 79 | 1009.5 |
| 20260903035109 | 82 | 266 | 0.0 | 0.0 | 0.00 | 0.00 | 0.00 | 79 | 1009.5 |
| 20260903034743 | 82 | 269 | 0.0 | 0.0 | 0.00 | 0.00 | 0.00 | 79 | 1009.3 |
| 20260903034641 | 82 | 269 | 0.0 | 0.0 | 0.00 | 0.00 | 0.00 | 79 | 1009.3 |
| 20260903034534 | 82 | 269 | 0.0 | 0.0 | 0.00 | 0.00 | 0.00 | 79 | 1009.3 |
| 20260903034428 | 82 | 270 | 0.0 | 0.0 | 0.00 | 0.00 | 0.00 | 79 | 1009.3 |
| 20260903034321 | 82 | 270 | 0.0 | 4.0 | 0.00 | 0.00 | 0.00 | 79 | 1009.3 |
| 20260903034216 | 82 | 273 | 0.0 | 4.0 | 0.00 | 0.00 | 0.00 | 79 | 1009.2 |
| 20260903034110 | 82 | 259 | 0.0 | 3.0 | 0.00 | 0.00 | 0.00 | 79 | 1009.2 |
| 20260903034003 | 82 | 263 | 0.0 | 0.0 | 0.00 | 0.00 | 0.00 | 79 | 1009.2 |
| 20260903033900 | 82 | 263 | 0.0 | 0.0 | 0.00 | 0.00 | 0.00 | 79 | 1009.2 |
| 20260903033758 | 82 | 263 | 0.0 | 0.0 | 0.00 | 0.00 | 0.00 | 79 | 1009.1 |
| 20260903033651 | 82 | 263 | 0.0 | 0.0 | 0.00 | 0.00 | 0.00 | 79 | 1009.1 |
| 20260903033549 | 82 | 263 | 0.0 | 0.0 | 0.00 | 0.00 | 0.00 | 79 | 1009.1 |
| 20260903033442 | 82 | 234 | 0.0 | 8.0 | 0.00 | 0.00 | 0.00 | 79 | 1009.1 |
| 20260903033337 | 82 | 248 | 0.0 | 8.0 | 0.00 | 0.00 | 0.00 | 79 | 1009.1 |
| 20260903033234 | 82 | 277 | 0.0 | 8.0 | 0.00 | 0.00 | 0.00 | 79 | 1009.0 |
| 20260903033127 | 82 | 238 | 0.0 | 1.0 | 0.00 | 0.00 | 0.00 | 79 | 1009.1 |
| 20260903033021 | 82 | 244 | 0.0 | 0.0 | 0.00 | 0.00 | 0.00 | 79 | 1009.0 |
| 20260903032914 | 82 | 236 | 0.0 | 0.0 | 0.00 | 0.00 | 0.00 | 79 | 1009.1 |
| 20260903032806 | 82 | 236 | 0.0 | 0.0 | 0.00 | 0.00 | 0.00 | 79 | 1009.0 |
| 20260903032442 | 82 | 206 | 0.0 | 5.0 | 0.00 | 0.00 | 0.00 | 79 | 1009.0 |
| 20260903032336 | 82 | 235 | 0.0 | 5.0 | 0.00 | 0.00 | 0.00 | 79 | 1009.0 |
| 20260903032228 | 82 | 231 | 0.0 | 5.0 | 0.00 | 0.00 | 0.00 | 79 | 1009.1 |
| 20260903032126 | 82 | 218 | 0.0 | 5.0 | 0.00 | 0.00 | 0.00 | 80 | 1009.1 |
| 20260903032024 | 82 | 219 | 0.0 | 5.0 | 0.00 | 0.00 | 0.00 | 80 | 1009.0 |
| 20260903031920 | 82 | 220 | 0.0 | 5.0 | 0.00 | 0.00 | 0.00 | 80 | 1009.0 |
| 20260903031816 | 82 | 244 | 0.0 | 4.0 | 0.00 | 0.00 | 0.00 | 80 | 1009.0 |
| 20260903031452 | 82 | 254 | 0.0 | 0.0 | 0.00 | 0.00 | 0.00 | 80 | 1009.0 |
| 20260903031347 | 82 | 202 | 0.0 | 0.0 | 0.00 | 0.00 | 0.00 | 80 | 1009.0 |
| 20260903031242 | 82 | 221 | 0.0 | 0.0 | 0.00 | 0.00 | 0.00 | 80 | 1009.0 |
| 20260903031140 | 82 | 202 | 0.0 | 0.0 | 0.00 | 0.00 | 0.00 | 80 | 1009.1 |
| 20260903031033 | 82 | 223 | 0.0 | 0.0 | 0.00 | 0.00 | 0.00 | 80 | 1009.0 |
| 20260903030927 | 82 | 229 | 0.0 | 0.0 | 0.00 | 0.00 | 0.00 | 80 | 1009.0 |
| 20260903030823 | 82 | 229 | 0.0 | 0.0 | 0.00 | 0.00 | 0.00 | 80 | 1009.0 |
| 20260903030721 | 82 | 229 | 0.0 | 0.0 | 0.00 | 0.00 | 0.00 | 80 | 1009.1 |
| 20260903030613 | 82 | 251 | 0.0 | 0.0 | 0.00 | 0.00 | 0.00 | 80 | 1009.0 |
| 20260903030508 | 82 | 218 | 0.0 | 0.0 | 0.00 | 0.00 | 0.00 | 80 | 1009.0 |
| 20260903030401 | 82 | 202 | 0.0 | 0.0 | 0.00 | 0.00 | 0.00 | 80 | 1009.0 |
| 20260903030254 | 82 | 212 | 0.0 | 0.0 | 0.00 | 0.00 | 0.00 | 80 | 1009.0 |
| 20260903030149 | 82 | 202 | 0.0 | 0.0 | 0.00 | 0.00 | 0.00 | 80 | 1009.0 |
| 20260903030047 | 82 | 202 | 0.0 | 0.0 | 0.00 | 0.00 | 0.00 | 80 | 1009.0 |
| 20260903025940 | 81 | 192 | 0.0 | 0.0 | 0.00 | 0.00 | 0.00 | 80 | 1009.0 |
| 20260903025833 | 81 | 190 | 0.0 | 0.0 | 0.00 | 0.00 | 0.00 | 80 | 1009.0 |
| 20260903025726 | 81 | 263 | 0.0 | 0.0 | 0.00 | 0.00 | 0.00 | 81 | 1009.0 |
| 20260903025624 | 81 | 263 | 0.0 | 0.0 | 0.00 | 0.00 | 0.00 | 81 | 1009.1 |
| 20260903025520 | 81 | 260 | 0.0 | 0.0 | 0.00 | 0.00 | 0.00 | 81 | 1009.0 |
| 20260903025413 | 81 | 217 | 0.0 | 0.0 | 0.00 | 0.00 | 0.00 | 81 | 1009.1 |
| 20260903025308 | 81 | 217 | 0.0 | 0.0 | 0.00 | 0.00 | 0.00 | 81 | 1009.1 |
| 20260903025205 | 81 | 216 | 0.0 | 0.0 | 0.00 | 0.00 | 0.00 | 81 | 1009.1 |
| 20260903025058 | 81 | 240 | 0.0 | 0.0 | 0.00 | 0.00 | 0.00 | 81 | 1009.1 |
| 20260903024950 | 81 | 240 | 0.0 | 0.0 | 0.00 | 0.00 | 0.00 | 81 | 1009.1 |
| 20260903024627 | 81 | 180 | 0.0 | 0.0 | 0.00 | 0.00 | 0.00 | 82 | 1009.1 |
| 20260903024524 | 81 | 207 | 0.0 | 0.0 | 0.00 | 0.00 | 0.00 | 82 | 1009.1 |
| 20260903024420 | 81 | 209 | 0.0 | 0.0 | 0.00 | 0.00 | 0.00 | 82 | 1009.0 |
| 20260903024317 | 80 | 248 | 0.0 | 0.0 | 0.00 | 0.00 | 0.00 | 82 | 1009.0 |
| 20260903024212 | 80 | 250 | 0.0 | 0.0 | 0.00 | 0.00 | 0.00 | 82 | 1009.0 |
| 20260903023849 | 80 | 246 | 0.0 | 0.0 | 0.00 | 0.00 | 0.00 | 83 | 1008.9 |
| 20260903023743 | 80 | 246 | 0.0 | 0.0 | 0.00 | 0.00 | 0.00 | 83 | 1008.8 |
| 20260903023640 | 80 | 215 | 0.0 | 0.0 | 0.00 | 0.00 | 0.00 | 83 | 1008.8 |
| 20260903023535 | 80 | 175 | 0.0 | 0.0 | 0.00 | 0.00 | 0.00 | 83 | 1008.8 |
| 20260903023428 | 80 | 175 | 0.0 | 0.0 | 0.00 | 0.00 | 0.00 | 83 | 1008.8 |
| 20260903023326 | 79 | 175 | 0.0 | 0.0 | 0.00 | 0.00 | 0.00 | 84 | 1008.8 |
| 20260903023219 | 79 | 175 | 0.0 | 0.0 | 0.00 | 0.00 | 0.00 | 84 | 1008.8 |
| 20260903023112 | 79 | 176 | 0.0 | 0.0 | 0.00 | 0.00 | 0.00 | 84 | 1008.9 |
| 20260903023006 | 79 | 207 | 0.0 | 0.0 | 0.00 | 0.00 | 0.00 | 84 | 1008.9 |
| 20260903022903 | 79 | 207 | 0.0 | 0.0 | 0.00 | 0.00 | 0.00 | 84 | 1008.9 |
| 20260903022758 | 79 | 206 | 0.0 | 0.0 | 0.00 | 0.00 | 0.00 | 84 | 1009.0 |
| 20260903022429 | 79 | 200 | 0.0 | 0.0 | 0.00 | 0.00 | 0.00 | 84 | 1009.1 |
| 20260903022327 | 79 | 200 | 0.0 | 0.0 | 0.00 | 0.00 | 0.00 | 84 | 1009.1 |
| 20260903022224 | 79 | 200 | 0.0 | 0.0 | 0.00 | 0.00 | 0.00 | 84 | 1009.1 |
| 20260903021900 | 79 | 200 | 0.0 | 0.0 | 0.00 | 0.00 | 0.00 | 84 | 1009.3 |
| 20260903021752 | 79 | 200 | 0.0 | 0.0 | 0.00 | 0.00 | 0.00 | 84 | 1009.3 |
| 20260903021645 | 79 | 200 | 0.0 | 0.0 | 0.00 | 0.00 | 0.00 | 84 | 1009.3 |
| 20260903021540 | 79 | 200 | 0.0 | 0.0 | 0.00 | 0.00 | 0.00 | 84 | 1009.4 |
| 20260903021433 | 79 | 200 | 0.0 | 0.0 | 0.00 | 0.00 | 0.00 | 84 | 1009.4 |
| 20260903021326 | 79 | 200 | 0.0 | 0.0 | 0.00 | 0.00 | 0.00 | 84 | 1009.4 |
| 20260903021223 | 79 | 200 | 0.0 | 0.0 | 0.00 | 0.00 | 0.00 | 84 | 1009.5 |
| 20260903021119 | 79 | 200 | 0.0 | 0.0 | 0.00 | 0.00 | 0.00 | 84 | 1009.5 |
| 20260903020536 | 79 | 200 | 0.0 | 0.0 | 0.00 | 0.00 | 0.00 | 83 | 1009.7 |
| 20260903020430 | 79 | 200 | 0.0 | 0.0 | 0.00 | 0.00 | 0.00 | 83 | 1009.6 |
| 20260903020109 | 79 | 200 | 0.0 | 0.0 | 0.00 | 0.00 | 0.00 | 83 | 1009.7 |
| 20260903015743 | 79 | 200 | 0.0 | 0.0 | 0.00 | 0.00 | 0.00 | 83 | 1009.7 |
| 20260903015636 | 79 | 200 | 0.0 | 0.0 | 0.00 | 0.00 | 0.00 | 83 | 1009.6 |
| 20260903015532 | 79 | 200 | 0.0 | 0.0 | 0.00 | 0.00 | 0.00 | 83 | 1009.7 |
| 20260903015424 | 79 | 200 | 0.0 | 0.0 | 0.00 | 0.00 | 0.00 | 83 | 1009.6 |
| 20260903015317 | 79 | 200 | 0.0 | 0.0 | 0.00 | 0.00 | 0.00 | 82 | 1009.7 |
| 20260903014955 | 80 | 200 | 0.0 | 0.0 | 0.00 | 0.00 | 0.00 | 82 | 1009.6 |
| 20260903014850 | 80 | 200 | 0.0 | 0.0 | 0.00 | 0.00 | 0.00 | 82 | 1009.6 |
| 20260903014743 | 80 | 200 | 0.0 | 0.0 | 0.00 | 0.00 | 0.00 | 82 | 1009.6 |
| 20260903014635 | 80 | 200 | 0.0 | 0.0 | 0.00 | 0.00 | 0.00 | 82 | 1009.5 |
| 20260903014530 | 80 | 200 | 0.0 | 0.0 | 0.00 | 0.00 | 0.00 | 82 | 1009.5 |
| 20260903014426 | 80 | 200 | 0.0 | 0.0 | 0.00 | 0.00 | 0.00 | 82 | 1009.5 |
| 20260903014324 | 80 | 200 | 0.0 | 0.0 | 0.00 | 0.00 | 0.00 | 82 | 1009.5 |
| 20260903014217 | 80 | 200 | 0.0 | 0.0 | 0.00 | 0.00 | 0.00 | 82 | 1009.5 |
| 20260903014115 | 80 | 200 | 0.0 | 0.0 | 0.00 | 0.00 | 0.00 | 81 | 1009.6 |
| 20260903014012 | 80 | 200 | 0.0 | 0.0 | 0.00 | 0.00 | 0.00 | 81 | 1009.5 |
| 20260903013647 | 80 | 200 | 0.0 | 0.0 | 0.00 | 0.00 | 0.00 | 81 | 1009.5 |
| 20260903013544 | 80 | 200 | 0.0 | 0.0 | 0.00 | 0.00 | 0.00 | 81 | 1009.5 |
| 20260903013439 | 80 | 200 | 0.0 | 0.0 | 0.00 | 0.00 | 0.00 | 81 | 1009.5 |
| 20260903013336 | 80 | 200 | 0.0 | 0.0 | 0.00 | 0.00 | 0.00 | 81 | 1009.6 |
| 20260903013232 | 80 | 200 | 0.0 | 0.0 | 0.00 | 0.00 | 0.00 | 81 | 1009.5 |
| 20260903012907 | 80 | 200 | 0.0 | 0.0 | 0.00 | 0.00 | 0.00 | 81 | 1009.5 |
| 20260903012801 | 80 | 200 | 0.0 | 0.0 | 0.00 | 0.00 | 0.00 | 81 | 1009.5 |
| 20260903012432 | 80 | 200 | 0.0 | 0.0 | 0.00 | 0.00 | 0.00 | 81 | 1009.5 |
| 20260903011626 | 81 | 200 | 0.0 | 0.0 | 0.00 | 0.00 | 0.00 | 80 | 1009.5 |
| 20260903011522 | 81 | 200 | 0.0 | 0.0 | 0.00 | 0.00 | 0.00 | 80 | 1009.5 |
| 20260903011156 | 81 | 200 | 0.0 | 0.0 | 0.00 | 0.00 | 0.00 | 79 | 1009.4 |
| 20260903010829 | 81 | 200 | 0.0 | 0.0 | 0.00 | 0.00 | 0.00 | 79 | 1009.4 |
| 20260903010724 | 81 | 200 | 0.0 | 0.0 | 0.00 | 0.00 | 0.00 | 79 | 1009.4 |
| 20260903010358 | 81 | 200 | 0.0 | 0.0 | 0.00 | 0.00 | 0.00 | 78 | 1009.4 |
| 20260903010254 | 82 | 200 | 0.0 | 0.0 | 0.00 | 0.00 | 0.00 | 78 | 1009.3 |
| 20260903010149 | 82 | 200 | 0.0 | 0.0 | 0.00 | 0.00 | 0.00 | 78 | 1009.3 |
| 20260903010045 | 82 | 200 | 0.0 | 0.0 | 0.00 | 0.00 | 0.00 | 78 | 1009.3 |
| 20260903005939 | 82 | 200 | 0.0 | 0.0 | 0.00 | 0.00 | 0.00 | 77 | 1009.3 |
| 20260903005616 | 82 | 200 | 0.0 | 0.0 | 0.00 | 0.00 | 0.00 | 77 | 1009.3 |
| 20260903005513 | 82 | 200 | 0.0 | 0.0 | 0.00 | 0.00 | 0.00 | 76 | 1009.2 |
| 20260903005407 | 82 | 200 | 0.0 | 0.0 | 0.00 | 0.00 | 0.00 | 76 | 1009.2 |
| 20260903005306 | 82 | 200 | 0.0 | 0.0 | 0.00 | 0.00 | 0.00 | 76 | 1009.2 |
| 20260903004937 | 83 | 200 | 0.0 | 0.0 | 0.00 | 0.00 | 0.00 | 75 | 1009.2 |
| 20260903004834 | 83 | 200 | 0.0 | 0.0 | 0.00 | 0.00 | 0.00 | 75 | 1009.2 |
| 20260903004506 | 83 | 200 | 0.0 | 0.0 | 0.00 | 0.00 | 0.00 | 74 | 1009.1 |
| 20260903004403 | 83 | 200 | 0.0 | 0.0 | 0.00 | 0.00 | 0.00 | 74 | 1009.1 |
| 20260903004039 | 84 | 200 | 0.0 | 0.0 | 0.00 | 0.00 | 0.00 | 73 | 1009.1 |
| 20260903003711 | 84 | 200 | 0.0 | 0.0 | 0.00 | 0.00 | 0.00 | 73 | 1009.1 |
| 20260903003608 | 84 | 200 | 0.0 | 0.0 | 0.00 | 0.00 | 0.00 | 73 | 1009.0 |
| 20260903003506 | 84 | 200 | 0.0 | 0.0 | 0.00 | 0.00 | 0.00 | 73 | 1009.0 |
| 20260903003403 | 84 | 200 | 0.0 | 0.0 | 0.00 | 0.00 | 0.00 | 72 | 1009.0 |
| 20260903003257 | 84 | 200 | 0.0 | 0.0 | 0.00 | 0.00 | 0.00 | 72 | 1008.9 |
| 20260903003152 | 84 | 200 | 0.0 | 0.0 | 0.00 | 0.00 | 0.00 | 72 | 1008.9 |
| 20260903003047 | 84 | 200 | 0.0 | 0.0 | 0.00 | 0.00 | 0.00 | 72 | 1008.9 |
| 20260903002942 | 84 | 200 | 0.0 | 0.0 | 0.00 | 0.00 | 0.00 | 71 | 1008.9 |
| 20260903002838 | 85 | 200 | 0.0 | 0.0 | 0.00 | 0.00 | 0.00 | 71 | 1008.8 |
| 20260903002256 | 85 | 200 | 0.0 | 0.0 | 0.00 | 0.00 | 0.00 | 70 | 1008.8 |
| 20260903002151 | 85 | 200 | 0.0 | 0.0 | 0.00 | 0.00 | 0.00 | 70 | 1008.8 |
| 20260903002045 | 85 | 200 | 0.0 | 0.0 | 0.00 | 0.00 | 0.00 | 70 | 1008.8 |
| 20260903001941 | 85 | 200 | 0.0 | 0.0 | 0.00 | 0.00 | 0.00 | 70 | 1008.8 |
| 20260903001835 | 85 | 200 | 0.0 | 0.0 | 0.00 | 0.00 | 0.00 | 70 | 1008.8 |
| 20260903001512 | 86 | 200 | 0.0 | 0.0 | 0.00 | 0.00 | 0.00 | 70 | 1008.9 |
| 20260903001411 | 86 | 200 | 0.0 | 0.0 | 0.00 | 0.00 | 0.00 | 69 | 1008.9 |
| 20260903001304 | 86 | 200 | 0.0 | 0.0 | 0.00 | 0.00 | 0.00 | 69 | 1008.8 |
| 20260903001159 | 86 | 200 | 0.0 | 0.0 | 0.00 | 0.00 | 0.00 | 69 | 1008.8 |
| 20260903001057 | 86 | 200 | 0.0 | 0.0 | 0.00 | 0.00 | 0.00 | 68 | 1008.8 |
| 20260903000953 | 86 | 200 | 0.0 | 0.0 | 0.00 | 0.00 | 0.00 | 69 | 1008.8 |
| 20260903000850 | 86 | 200 | 0.0 | 0.0 | 0.00 | 0.00 | 0.00 | 68 | 1008.9 |
| 20260903000746 | 86 | 200 | 0.0 | 0.0 | 0.00 | 0.00 | 0.00 | 68 | 1008.9 |
| 20260903000417 | 87 | 200 | 0.0 | 0.0 | 0.00 | 0.00 | 0.00 | 67 | 1008.9 |
| 20260903000052 | 87 | 213 | 0.0 | 0.0 | 0.00 | 0.00 | 0.00 | 67 | 1009.0 |
| 20260902235950 | 87 | 213 | 0.0 | 0.0 | 0.00 | 0.00 | 0.00 | 67 | 1008.9 |
| 20260902235626 | 87 | 213 | 0.0 | 0.0 | 0.00 | 0.00 | 0.00 | 66 | 1009.0 |
| 20260902235520 | 88 | 213 | 0.0 | 0.0 | 0.00 | 0.00 | 0.00 | 66 | 1009.0 |
| 20260902235418 | 88 | 213 | 0.0 | 0.0 | 0.00 | 0.00 | 0.00 | 66 | 1009.0 |
| 20260902235315 | 88 | 213 | 0.0 | 0.0 | 0.00 | 0.00 | 0.00 | 66 | 1009.0 |
| 20260902235209 | 88 | 213 | 0.0 | 0.0 | 0.00 | 0.00 | 0.00 | 66 | 1009.0 |
| 20260902234628 | 88 | 215 | 0.0 | 0.0 | 0.00 | 0.00 | 0.00 | 65 | 1008.9 |
| 20260902234300 | 89 | 216 | 0.0 | 0.0 | 0.00 | 0.00 | 0.00 | 65 | 1009.0 |
| 20260902234153 | 89 | 216 | 0.0 | 0.0 | 0.00 | 0.00 | 0.00 | 64 | 1008.9 |
| 20260902234049 | 89 | 216 | 0.0 | 0.0 | 0.00 | 0.00 | 0.00 | 64 | 1008.9 |
| 20260902233725 | 89 | 216 | 0.0 | 0.0 | 0.00 | 0.00 | 0.00 | 64 | 1008.9 |
| 20260902233618 | 89 | 216 | 0.0 | 0.0 | 0.00 | 0.00 | 0.00 | 64 | 1008.9 |
| 20260902233515 | 89 | 216 | 0.0 | 0.0 | 0.00 | 0.00 | 0.00 | 64 | 1009.0 |
| 20260902233413 | 89 | 216 | 0.0 | 0.0 | 0.00 | 0.00 | 0.00 | 64 | 1008.9 |
| 20260902233309 | 89 | 217 | 0.0 | 0.0 | 0.00 | 0.00 | 0.00 | 64 | 1008.9 |
| 20260902233206 | 89 | 217 | 0.0 | 0.0 | 0.00 | 0.00 | 0.00 | 63 | 1008.9 |
| 20260902233103 | 89 | 217 | 0.0 | 0.0 | 0.00 | 0.00 | 0.00 | 63 | 1008.9 |
| 20260902233001 | 90 | 217 | 0.0 | 0.0 | 0.00 | 0.00 | 0.00 | 63 | 1008.9 |
| 20260902232637 | 90 | 220 | 0.0 | 0.0 | 0.00 | 0.00 | 0.00 | 63 | 1008.9 |
| 20260902232534 | 90 | 221 | 0.0 | 1.0 | 0.00 | 0.00 | 0.00 | 63 | 1008.9 |
| 20260902232429 | 90 | 223 | 0.0 | 1.0 | 0.00 | 0.00 | 0.00 | 63 | 1008.9 |
| 20260902232322 | 90 | 227 | 0.0 | 1.0 | 0.00 | 0.00 | 0.00 | 63 | 1008.9 |
| 20260902231736 | 90 | 194 | 0.0 | 0.0 | 0.00 | 0.00 | 0.00 | 63 | 1008.9 |
| 20260902231633 | 90 | 194 | 0.0 | 0.0 | 0.00 | 0.00 | 0.00 | 63 | 1008.9 |
| 20260902231528 | 90 | 194 | 0.0 | 0.0 | 0.00 | 0.00 | 0.00 | 62 | 1009.0 |
| 20260902231423 | 90 | 194 | 0.0 | 3.0 | 0.00 | 0.00 | 0.00 | 63 | 1008.9 |
| 20260902231321 | 90 | 194 | 0.0 | 3.0 | 0.00 | 0.00 | 0.00 | 62 | 1009.0 |
| 20260902231216 | 91 | 193 | 0.0 | 0.0 | 0.00 | 0.00 | 0.00 | 63 | 1009.0 |
| 20260902231109 | 91 | 193 | 0.0 | 0.0 | 0.00 | 0.00 | 0.00 | 63 | 1009.0 |
| 20260902231004 | 91 | 193 | 0.0 | 0.0 | 0.00 | 0.00 | 0.00 | 62 | 1008.9 |
| 20260902230859 | 91 | 215 | 0.0 | 0.0 | 0.00 | 0.00 | 0.00 | 62 | 1008.9 |
| 20260902230753 | 91 | 229 | 0.0 | 3.0 | 0.00 | 0.00 | 0.00 | 62 | 1008.9 |
| 20260902230646 | 91 | 229 | 0.0 | 3.0 | 0.00 | 0.00 | 0.00 | 62 | 1008.9 |
| 20260902230540 | 91 | 190 | 0.0 | 3.0 | 0.00 | 0.00 | 0.00 | 62 | 1008.9 |
| 20260902230215 | 91 | 212 | 1.0 | 3.0 | 0.00 | 0.00 | 0.00 | 61 | 1008.9 |
| 20260902230108 | 91 | 198 | 1.0 | 7.0 | 0.00 | 0.00 | 0.00 | 62 | 1008.9 |
| 20260902230005 | 91 | 198 | 1.0 | 7.0 | 0.00 | 0.00 | 0.00 | 61 | 1008.9 |
| 20260902225901 | 91 | 170 | 0.0 | 7.0 | 0.00 | 0.00 | 0.00 | 61 | 1008.9 |
| 20260902225753 | 91 | 205 | 0.0 | 7.0 | 0.00 | 0.00 | 0.00 | 61 | 1009.0 |
| 20260902225646 | 91 | 215 | 1.0 | 7.0 | 0.00 | 0.00 | 0.00 | 61 | 1008.9 |
| 20260902225542 | 91 | 230 | 1.0 | 7.0 | 0.00 | 0.00 | 0.00 | 61 | 1008.9 |
| 20260902225436 | 91 | 178 | 1.0 | 7.0 | 0.00 | 0.00 | 0.00 | 61 | 1008.9 |
| 20260902225111 | 91 | 219 | 0.0 | 7.0 | 0.00 | 0.00 | 0.00 | 61 | 1008.9 |
| 20260902224747 | 91 | 214 | 0.0 | 7.0 | 0.00 | 0.00 | 0.00 | 60 | 1008.9 |
| 20260902224645 | 91 | 208 | 0.0 | 7.0 | 0.00 | 0.00 | 0.00 | 60 | 1008.9 |
| 20260902224539 | 91 | 192 | 0.0 | 0.0 | 0.00 | 0.00 | 0.00 | 60 | 1008.8 |
| 20260902224436 | 91 | 193 | 0.0 | 0.0 | 0.00 | 0.00 | 0.00 | 61 | 1008.8 |
| 20260902224329 | 91 | 235 | 0.0 | 0.0 | 0.00 | 0.00 | 0.00 | 61 | 1008.8 |
| 20260902224222 | 91 | 211 | 0.0 | 7.0 | 0.00 | 0.00 | 0.00 | 61 | 1008.9 |
| 20260902224116 | 91 | 207 | 0.0 | 7.0 | 0.00 | 0.00 | 0.00 | 60 | 1008.8 |
| 20260902223747 | 92 | 237 | 1.0 | 7.0 | 0.00 | 0.00 | 0.00 | 60 | 1008.8 |
| 20260902223645 | 92 | 246 | 1.0 | 7.0 | 0.00 | 0.00 | 0.00 | 60 | 1008.8 |
| 20260902223539 | 92 | 205 | 1.0 | 7.0 | 0.00 | 0.00 | 0.00 | 60 | 1008.8 |
| 20260902223437 | 92 | 245 | 1.0 | 7.0 | 0.00 | 0.00 | 0.00 | 60 | 1008.8 |
| 20260902223333 | 92 | 221 | 1.0 | 7.0 | 0.00 | 0.00 | 0.00 | 61 | 1008.8 |
| 20260902223228 | 92 | 254 | 1.0 | 7.0 | 0.00 | 0.00 | 0.00 | 60 | 1008.8 |
| 20260902222904 | 92 | 194 | 2.0 | 7.0 | 0.00 | 0.00 | 0.00 | 60 | 1008.8 |
| 20260902222801 | 92 | 203 | 2.0 | 7.0 | 0.00 | 0.00 | 0.00 | 60 | 1008.9 |
| 20260902222657 | 92 | 224 | 2.0 | 7.0 | 0.00 | 0.00 | 0.00 | 59 | 1008.9 |
| 20260902222552 | 92 | 259 | 2.0 | 7.0 | 0.00 | 0.00 | 0.00 | 60 | 1008.9 |
| 20260902222445 | 92 | 220 | 2.0 | 7.0 | 0.00 | 0.00 | 0.00 | 60 | 1008.9 |
| 20260902222342 | 92 | 217 | 2.0 | 7.0 | 0.00 | 0.00 | 0.00 | 60 | 1009.0 |
| 20260902222240 | 92 | 281 | 2.0 | 7.0 | 0.00 | 0.00 | 0.00 | 60 | 1008.9 |
| 20260902221918 | 92 | 231 | 2.0 | 7.0 | 0.00 | 0.00 | 0.00 | 59 | 1008.9 |
| 20260902221815 | 92 | 280 | 1.0 | 6.0 | 0.00 | 0.00 | 0.00 | 59 | 1008.9 |
| 20260902221708 | 92 | 236 | 1.0 | 6.0 | 0.00 | 0.00 | 0.00 | 60 | 1008.9 |
| 20260902221604 | 92 | 200 | 1.0 | 3.0 | 0.00 | 0.00 | 0.00 | 60 | 1008.9 |
| 20260902221500 | 92 | 204 | 1.0 | 6.0 | 0.00 | 0.00 | 0.00 | 60 | 1009.0 |
| 20260902221356 | 92 | 209 | 2.0 | 6.0 | 0.00 | 0.00 | 0.00 | 60 | 1008.9 |
| 20260902221252 | 92 | 261 | 1.0 | 9.0 | 0.00 | 0.00 | 0.00 | 60 | 1008.9 |
| 20260902221150 | 92 | 228 | 1.0 | 9.0 | 0.00 | 0.00 | 0.00 | 60 | 1009.0 |
| 20260902221048 | 93 | 236 | 1.0 | 9.0 | 0.00 | 0.00 | 0.00 | 60 | 1009.0 |
| 20260902220942 | 92 | 236 | 1.0 | 9.0 | 0.00 | 0.00 | 0.00 | 59 | 1009.0 |
| 20260902220838 | 92 | 255 | 1.0 | 9.0 | 0.00 | 0.00 | 0.00 | 59 | 1009.0 |
| 20260902220732 | 92 | 250 | 1.0 | 9.0 | 0.00 | 0.00 | 0.00 | 59 | 1009.0 |
| 20260902220626 | 93 | 266 | 2.0 | 9.0 | 0.00 | 0.00 | 0.00 | 60 | 1008.9 |
| 20260902220521 | 92 | 211 | 2.0 | 9.0 | 0.00 | 0.00 | 0.00 | 59 | 1009.0 |
| 20260902220419 | 92 | 232 | 2.0 | 9.0 | 0.00 | 0.00 | 0.00 | 60 | 1008.9 |
| 20260902220314 | 92 | 229 | 2.0 | 9.0 | 0.00 | 0.00 | 0.00 | 60 | 1008.9 |
| 20260902220207 | 92 | 213 | 2.0 | 9.0 | 0.00 | 0.00 | 0.00 | 60 | 1008.9 |
| 20260902215958 | 92 | 213 | 3.0 | 9.0 | 0.00 | 0.00 | 0.00 | 59 | 1008.9 |
| 20260902215851 | 92 | 231 | 2.0 | 9.0 | 0.00 | 0.00 | 0.00 | 59 | 1008.9 |
| 20260902215745 | 92 | 270 | 2.0 | 9.0 | 0.00 | 0.00 | 0.00 | 59 | 1009.0 |
| 20260902215639 | 92 | 293 | 2.0 | 9.0 | 0.00 | 0.00 | 0.00 | 59 | 1008.9 |
| 20260902215535 | 92 | 263 | 2.0 | 9.0 | 0.00 | 0.00 | 0.00 | 59 | 1009.0 |
| 20260902215430 | 92 | 275 | 2.0 | 9.0 | 0.00 | 0.00 | 0.00 | 59 | 1009.0 |
| 20260902215324 | 92 | 265 | 1.0 | 9.0 | 0.00 | 0.00 | 0.00 | 59 | 1009.0 |
| 20260902215218 | 92 | 205 | 1.0 | 7.0 | 0.00 | 0.00 | 0.00 | 60 | 1009.0 |
| 20260902215113 | 92 | 257 | 1.0 | 7.0 | 0.00 | 0.00 | 0.00 | 59 | 1009.0 |
| 20260902214749 | 92 | 188 | 1.0 | 8.0 | 0.00 | 0.00 | 0.00 | 60 | 1009.1 |
| 20260902214643 | 92 | 260 | 1.0 | 8.0 | 0.00 | 0.00 | 0.00 | 60 | 1009.1 |
| 20260902214539 | 92 | 252 | 1.0 | 8.0 | 0.00 | 0.00 | 0.00 | 60 | 1009.1 |
| 20260902214436 | 92 | 260 | 1.0 | 8.0 | 0.00 | 0.00 | 0.00 | 60 | 1009.1 |
| 20260902214117 | 92 | 261 | 2.0 | 8.0 | 0.00 | 0.00 | 0.00 | 59 | 1009.1 |
| 20260902214011 | 92 | 234 | 2.0 | 8.0 | 0.00 | 0.00 | 0.00 | 60 | 1009.2 |
| 20260902213906 | 92 | 230 | 2.0 | 8.0 | 0.00 | 0.00 | 0.00 | 60 | 1009.1 |
| 20260902213537 | 92 | 281 | 2.0 | 8.0 | 0.00 | 0.00 | 0.00 | 59 | 1009.1 |
| 20260902213431 | 92 | 219 | 2.0 | 8.0 | 0.00 | 0.00 | 0.00 | 59 | 1009.1 |
| 20260902213107 | 92 | 248 | 2.0 | 8.0 | 0.00 | 0.00 | 0.00 | 58 | 1009.2 |
| 20260902213003 | 92 | 281 | 2.0 | 7.0 | 0.00 | 0.00 | 0.00 | 59 | 1009.1 |
| 20260902212422 | 93 | 261 | 2.0 | 7.0 | 0.00 | 0.00 | 0.00 | 59 | 1009.2 |
| 20260902211835 | 93 | 178 | 2.0 | 7.0 | 0.00 | 0.00 | 0.00 | 58 | 1009.3 |
| 20260902211730 | 93 | 251 | 2.0 | 7.0 | 0.00 | 0.00 | 0.00 | 59 | 1009.3 |
| 20260902211627 | 92 | 229 | 2.0 | 9.0 | 0.00 | 0.00 | 0.00 | 59 | 1009.3 |
| 20260902211521 | 92 | 234 | 2.0 | 9.0 | 0.00 | 0.00 | 0.00 | 60 | 1009.4 |
| 20260902211416 | 92 | 208 | 2.0 | 9.0 | 0.00 | 0.00 | 0.00 | 60 | 1009.4 |
| 20260902211311 | 92 | 220 | 2.0 | 9.0 | 0.00 | 0.00 | 0.00 | 59 | 1009.4 |
| 20260902211209 | 92 | 259 | 2.0 | 9.0 | 0.00 | 0.00 | 0.00 | 60 | 1009.4 |
| 20260902211101 | 92 | 252 | 2.0 | 9.0 | 0.00 | 0.00 | 0.00 | 59 | 1009.4 |
| 20260902210959 | 92 | 236 | 3.0 | 9.0 | 0.00 | 0.00 | 0.00 | 59 | 1009.4 |
| 20260902210851 | 92 | 277 | 3.0 | 9.0 | 0.00 | 0.00 | 0.00 | 60 | 1009.4 |
| 20260902210749 | 92 | 250 | 3.0 | 9.0 | 0.00 | 0.00 | 0.00 | 60 | 1009.4 |
| 20260902210643 | 92 | 249 | 4.0 | 9.0 | 0.00 | 0.00 | 0.00 | 59 | 1009.4 |
| 20260902210540 | 92 | 211 | 4.0 | 9.0 | 0.00 | 0.00 | 0.00 | 59 | 1009.4 |
| 20260902210437 | 92 | 246 | 4.0 | 9.0 | 0.00 | 0.00 | 0.00 | 58 | 1009.5 |
| 20260902210329 | 92 | 184 | 4.0 | 9.0 | 0.00 | 0.00 | 0.00 | 58 | 1009.4 |
| 20260902210227 | 92 | 298 | 4.0 | 9.0 | 0.00 | 0.00 | 0.00 | 59 | 1009.5 |
| 20260902210120 | 92 | 259 | 4.0 | 9.0 | 0.00 | 0.00 | 0.00 | 59 | 1009.5 |
| 20260902210018 | 92 | 240 | 4.0 | 9.0 | 0.00 | 0.00 | 0.00 | 59 | 1009.5 |
| 20260902205911 | 92 | 237 | 4.0 | 9.0 | 0.00 | 0.00 | 0.00 | 58 | 1009.5 |
| 20260902205807 | 92 | 271 | 4.0 | 9.0 | 0.00 | 0.00 | 0.00 | 59 | 1009.6 |
| 20260902205702 | 92 | 288 | 3.0 | 9.0 | 0.00 | 0.00 | 0.00 | 58 | 1009.5 |
| 20260902205556 | 92 | 276 | 3.0 | 9.0 | 0.00 | 0.00 | 0.00 | 59 | 1009.6 |
| 20260902205232 | 92 | 286 | 4.0 | 9.0 | 0.00 | 0.00 | 0.00 | 58 | 1009.5 |
| 20260902205125 | 92 | 246 | 3.0 | 9.0 | 0.00 | 0.00 | 0.00 | 58 | 1009.5 |
| 20260902205021 | 93 | 242 | 3.0 | 9.0 | 0.00 | 0.00 | 0.00 | 58 | 1009.5 |
| 20260902204918 | 93 | 257 | 3.0 | 9.0 | 0.00 | 0.00 | 0.00 | 58 | 1009.5 |
| 20260902204813 | 93 | 252 | 3.0 | 9.0 | 0.00 | 0.00 | 0.00 | 58 | 1009.6 |
| 20260902204448 | 93 | 232 | 3.0 | 9.0 | 0.00 | 0.00 | 0.00 | 58 | 1009.5 |
| 20260902204344 | 93 | 247 | 3.0 | 9.0 | 0.00 | 0.00 | 0.00 | 58 | 1009.6 |
| 20260902204237 | 93 | 290 | 3.0 | 9.0 | 0.00 | 0.00 | 0.00 | 58 | 1009.5 |
| 20260902204133 | 93 | 263 | 3.0 | 8.0 | 0.00 | 0.00 | 0.00 | 58 | 1009.6 |
| 20260902203811 | 93 | 239 | 3.0 | 7.0 | 0.00 | 0.00 | 0.00 | 58 | 1009.6 |
| 20260902203228 | 93 | 265 | 3.0 | 7.0 | 0.00 | 0.00 | 0.00 | 58 | 1009.7 |
| 20260902202903 | 93 | 241 | 2.0 | 7.0 | 0.00 | 0.00 | 0.00 | 59 | 1009.8 |
| 20260902202758 | 93 | 298 | 2.0 | 7.0 | 0.00 | 0.00 | 0.00 | 58 | 1009.8 |
| 20260902202652 | 93 | 273 | 2.0 | 7.0 | 0.00 | 0.00 | 0.00 | 59 | 1009.8 |
| 20260902202545 | 92 | 175 | 2.0 | 9.0 | 0.00 | 0.00 | 0.00 | 59 | 1009.7 |
| 20260902202442 | 92 | 276 | 3.0 | 9.0 | 0.00 | 0.00 | 0.00 | 58 | 1009.8 |
| 20260902202337 | 92 | 219 | 2.0 | 9.0 | 0.00 | 0.00 | 0.00 | 59 | 1009.8 |
| 20260902202233 | 92 | 253 | 2.0 | 9.0 | 0.00 | 0.00 | 0.00 | 58 | 1009.8 |
| 20260902202127 | 93 | 245 | 2.0 | 9.0 | 0.00 | 0.00 | 0.00 | 59 | 1009.8 |
| 20260902202022 | 93 | 263 | 3.0 | 9.0 | 0.00 | 0.00 | 0.00 | 58 | 1009.9 |
| 20260902201920 | 93 | 256 | 3.0 | 9.0 | 0.00 | 0.00 | 0.00 | 58 | 1009.9 |
| 20260902201336 | 93 | 200 | 3.0 | 9.0 | 0.00 | 0.00 | 0.00 | 58 | 1010.0 |
| 20260902201232 | 93 | 221 | 3.0 | 9.0 | 0.00 | 0.00 | 0.00 | 58 | 1010.0 |
| 20260902201125 | 93 | 246 | 3.0 | 9.0 | 0.00 | 0.00 | 0.00 | 58 | 1010.0 |
| 20260902201020 | 93 | 258 | 3.0 | 9.0 | 0.00 | 0.00 | 0.00 | 58 | 1010.0 |
| 20260902200917 | 93 | 231 | 3.0 | 9.0 | 0.00 | 0.00 | 0.00 | 58 | 1010.0 |
| 20260902200812 | 93 | 212 | 3.0 | 9.0 | 0.00 | 0.00 | 0.00 | 58 | 1010.0 |
| 20260902200705 | 93 | 185 | 3.0 | 9.0 | 0.00 | 0.00 | 0.00 | 58 | 1010.1 |
| 20260902200559 | 93 | 234 | 3.0 | 7.0 | 0.00 | 0.00 | 0.00 | 58 | 1010.1 |
| 20260902200456 | 93 | 217 | 3.0 | 7.0 | 0.00 | 0.00 | 0.00 | 58 | 1010.1 |
| 20260902200352 | 93 | 257 | 3.0 | 7.0 | 0.00 | 0.00 | 0.00 | 59 | 1010.1 |
| 20260902200248 | 92 | 229 | 3.0 | 7.0 | 0.00 | 0.00 | 0.00 | 59 | 1010.1 |
| 20260902200144 | 92 | 196 | 3.0 | 7.0 | 0.00 | 0.00 | 0.00 | 58 | 1010.1 |
| 20260902200041 | 92 | 200 | 2.0 | 7.0 | 0.00 | 0.00 | 0.00 | 58 | 1010.1 |
| 20260902195939 | 92 | 242 | 2.0 | 7.0 | 0.00 | 0.00 | 0.00 | 58 | 1010.1 |
| 20260902195832 | 92 | 284 | 2.0 | 7.0 | 0.00 | 0.00 | 0.00 | 58 | 1010.1 |
| 20260902195726 | 92 | 244 | 2.0 | 7.0 | 0.00 | 0.00 | 0.00 | 59 | 1010.1 |
| 20260902195618 | 92 | 192 | 2.0 | 12.0 | 0.00 | 0.00 | 0.00 | 59 | 1010.1 |
| 20260902195513 | 92 | 246 | 2.0 | 12.0 | 0.00 | 0.00 | 0.00 | 59 | 1010.1 |
| 20260902195411 | 92 | 220 | 2.0 | 12.0 | 0.00 | 0.00 | 0.00 | 58 | 1010.2 |
| 20260902195307 | 92 | 261 | 2.0 | 12.0 | 0.00 | 0.00 | 0.00 | 59 | 1010.2 |
| 20260902195205 | 92 | 222 | 2.0 | 12.0 | 0.00 | 0.00 | 0.00 | 61 | 1010.2 |
| 20260902195059 | 92 | 234 | 2.0 | 12.0 | 0.00 | 0.00 | 0.00 | 58 | 1010.2 |
| 20260902194953 | 92 | 202 | 2.0 | 12.0 | 0.00 | 0.00 | 0.00 | 59 | 1010.2 |
| 20260902194851 | 92 | 237 | 3.0 | 12.0 | 0.00 | 0.00 | 0.00 | 59 | 1010.2 |
| 20260902194746 | 92 | 215 | 3.0 | 12.0 | 0.00 | 0.00 | 0.00 | 58 | 1010.3 |
| 20260902194643 | 92 | 250 | 3.0 | 12.0 | 0.00 | 0.00 | 0.00 | 58 | 1010.3 |
| 20260902194538 | 92 | 142 | 4.0 | 12.0 | 0.00 | 0.00 | 0.00 | 59 | 1010.3 |
| 20260902194435 | 92 | 248 | 4.0 | 12.0 | 0.00 | 0.00 | 0.00 | 59 | 1010.3 |
| 20260902194329 | 92 | 216 | 5.0 | 12.0 | 0.00 | 0.00 | 0.00 | 59 | 1010.3 |
| 20260902194222 | 92 | 168 | 5.0 | 12.0 | 0.00 | 0.00 | 0.00 | 58 | 1010.3 |
| 20260902193856 | 92 | 268 | 4.0 | 12.0 | 0.00 | 0.00 | 0.00 | 58 | 1010.3 |
| 20260902193749 | 92 | 277 | 4.0 | 12.0 | 0.00 | 0.00 | 0.00 | 59 | 1010.4 |
| 20260902193647 | 92 | 280 | 4.0 | 12.0 | 0.00 | 0.00 | 0.00 | 58 | 1010.3 |
| 20260902193543 | 92 | 282 | 4.0 | 10.0 | 0.00 | 0.00 | 0.00 | 59 | 1010.4 |
| 20260902193438 | 93 | 257 | 4.0 | 10.0 | 0.00 | 0.00 | 0.00 | 58 | 1010.4 |
| 20260902193336 | 93 | 264 | 3.0 | 10.0 | 0.00 | 0.00 | 0.00 | 58 | 1010.5 |
| 20260902193231 | 93 | 276 | 3.0 | 10.0 | 0.00 | 0.00 | 0.00 | 59 | 1010.5 |
| 20260902193128 | 93 | 315 | 3.0 | 10.0 | 0.00 | 0.00 | 0.00 | 61 | 1010.4 |
| 20260902192802 | 92 | 244 | 4.0 | 9.0 | 0.00 | 0.00 | 0.00 | 59 | 1010.5 |
| 20260902192439 | 92 | 240 | 3.0 | 11.0 | 0.00 | 0.00 | 0.00 | 59 | 1010.5 |
| 20260902192336 | 92 | 274 | 3.0 | 11.0 | 0.00 | 0.00 | 0.00 | 61 | 1010.5 |
| 20260902192233 | 92 | 296 | 3.0 | 11.0 | 0.00 | 0.00 | 0.00 | 59 | 1010.5 |
| 20260902192131 | 92 | 290 | 3.0 | 11.0 | 0.00 | 0.00 | 0.00 | 58 | 1010.5 |
| 20260902192024 | 92 | 210 | 2.0 | 11.0 | 0.00 | 0.00 | 0.00 | 60 | 1010.6 |
| 20260902191218 | 92 | 224 | 3.0 | 11.0 | 0.00 | 0.00 | 0.00 | 60 | 1010.6 |
| 20260902191113 | 92 | 297 | 3.0 | 11.0 | 0.00 | 0.00 | 0.00 | 59 | 1010.6 |
| 20260902191006 | 92 | 298 | 3.0 | 11.0 | 0.00 | 0.00 | 0.00 | 58 | 1010.6 |
| 20260902190903 | 92 | 279 | 3.0 | 11.0 | 0.00 | 0.00 | 0.00 | 58 | 1010.7 |
| 20260902190758 | 92 | 188 | 4.0 | 11.0 | 0.00 | 0.00 | 0.00 | 58 | 1010.7 |
| 20260902190434 | 92 | 281 | 3.0 | 10.0 | 0.00 | 0.00 | 0.00 | 58 | 1010.6 |
| 20260902190328 | 92 | 234 | 3.0 | 7.0 | 0.00 | 0.00 | 0.00 | 58 | 1010.7 |
| 20260902190222 | 92 | 227 | 3.0 | 7.0 | 0.00 | 0.00 | 0.00 | 58 | 1010.7 |
| 20260902190115 | 92 | 294 | 3.0 | 7.0 | 0.00 | 0.00 | 0.00 | 58 | 1010.7 |
| 20260902190009 | 92 | 267 | 3.0 | 8.0 | 0.00 | 0.00 | 0.00 | 57 | 1010.7 |
| 20260902185902 | 92 | 206 | 3.0 | 8.0 | 0.00 | 0.00 | 0.00 | 58 | 1010.7 |
| 20260902185755 | 92 | 281 | 3.0 | 8.0 | 0.00 | 0.00 | 0.00 | 59 | 1010.7 |
| 20260902185652 | 92 | 230 | 3.0 | 8.0 | 0.00 | 0.00 | 0.00 | 59 | 1010.7 |
| 20260902185549 | 92 | 284 | 3.0 | 8.0 | 0.00 | 0.00 | 0.00 | 58 | 1010.7 |
| 20260902185446 | 92 | 263 | 3.0 | 8.0 | 0.00 | 0.00 | 0.00 | 58 | 1010.7 |
| 20260902184901 | 92 | 235 | 2.0 | 8.0 | 0.00 | 0.00 | 0.00 | 59 | 1010.6 |
| 20260902184756 | 92 | 256 | 2.0 | 8.0 | 0.00 | 0.00 | 0.00 | 59 | 1010.6 |
| 20260902184654 | 92 | 234 | 2.0 | 8.0 | 0.00 | 0.00 | 0.00 | 61 | 1010.6 |
| 20260902184332 | 92 | 256 | 2.0 | 8.0 | 0.00 | 0.00 | 0.00 | 61 | 1010.6 |
| 20260902184226 | 92 | 242 | 2.0 | 8.0 | 0.00 | 0.00 | 0.00 | 59 | 1010.6 |
| 20260902184120 | 92 | 265 | 2.0 | 8.0 | 0.00 | 0.00 | 0.00 | 60 | 1010.6 |
| 20260902184018 | 91 | 263 | 1.0 | 6.0 | 0.00 | 0.00 | 0.00 | 59 | 1010.7 |
| 20260902183651 | 91 | 273 | 2.0 | 7.0 | 0.00 | 0.00 | 0.00 | 60 | 1010.7 |
| 20260902183546 | 91 | 315 | 2.0 | 7.0 | 0.00 | 0.00 | 0.00 | 59 | 1010.8 |
| 20260902183442 | 91 | 257 | 2.0 | 7.0 | 0.00 | 0.00 | 0.00 | 60 | 1010.7 |
| 20260902183337 | 91 | 244 | 2.0 | 7.0 | 0.00 | 0.00 | 0.00 | 60 | 1010.7 |
| 20260902183235 | 91 | 258 | 2.0 | 7.0 | 0.00 | 0.00 | 0.00 | 59 | 1010.8 |
| 20260902183129 | 91 | 250 | 2.0 | 7.0 | 0.00 | 0.00 | 0.00 | 61 | 1010.8 |
| 20260902183021 | 91 | 248 | 3.0 | 7.0 | 0.00 | 0.00 | 0.00 | 60 | 1010.8 |
| 20260902182915 | 92 | 255 | 3.0 | 7.0 | 0.00 | 0.00 | 0.00 | 60 | 1010.9 |
| 20260902182808 | 92 | 261 | 3.0 | 7.0 | 0.00 | 0.00 | 0.00 | 61 | 1010.8 |
| 20260902182706 | 92 | 234 | 3.0 | 7.0 | 0.00 | 0.00 | 0.00 | 60 | 1010.8 |
| 20260902182602 | 92 | 233 | 3.0 | 7.0 | 0.00 | 0.00 | 0.00 | 60 | 1010.9 |
| 20260902182455 | 92 | 290 | 3.0 | 7.0 | 0.00 | 0.00 | 0.00 | 58 | 1010.9 |
| 20260902182353 | 92 | 266 | 3.0 | 7.0 | 0.00 | 0.00 | 0.00 | 59 | 1010.9 |
| 20260902182030 | 91 | 281 | 3.0 | 7.0 | 0.00 | 0.00 | 0.00 | 60 | 1010.9 |
| 20260902181923 | 91 | 265 | 3.0 | 10.0 | 0.00 | 0.00 | 0.00 | 60 | 1011.0 |
| 20260902181817 | 91 | 290 | 3.0 | 10.0 | 0.00 | 0.00 | 0.00 | 60 | 1011.0 |
| 20260902181713 | 91 | 275 | 4.0 | 10.0 | 0.00 | 0.00 | 0.00 | 59 | 1011.0 |
| 20260902181611 | 91 | 263 | 4.0 | 10.0 | 0.00 | 0.00 | 0.00 | 60 | 1010.9 |
| 20260902181243 | 91 | 277 | 5.0 | 10.0 | 0.00 | 0.00 | 0.00 | 59 | 1011.0 |
| 20260902181137 | 91 | 244 | 5.0 | 10.0 | 0.00 | 0.00 | 0.00 | 59 | 1011.0 |
| 20260902181029 | 91 | 288 | 5.0 | 10.0 | 0.00 | 0.00 | 0.00 | 58 | 1011.0 |
| 20260902180704 | 91 | 0 | 4.0 | 10.0 | 0.00 | 0.00 | 0.00 | 58 | 1011.0 |
| 20260902180601 | 91 | 274 | 4.0 | 10.0 | 0.00 | 0.00 | 0.00 | 58 | 1011.0 |
| 20260902180454 | 91 | 281 | 4.0 | 10.0 | 0.00 | 0.00 | 0.00 | 58 | 1011.0 |
| 20260902180347 | 91 | 273 | 4.0 | 10.0 | 0.00 | 0.00 | 0.00 | 58 | 1011.0 |
| 20260902180243 | 91 | 0 | 4.0 | 10.0 | 0.00 | 0.00 | 0.00 | 60 | 1011.1 |
| 20260902180138 | 91 | 234 | 4.0 | 10.0 | 0.00 | 0.00 | 0.00 | 58 | 1011.1 |
| 20260902180034 | 91 | 250 | 4.0 | 10.0 | 0.00 | 0.00 | 0.00 | 58 | 1011.1 |
| 20260902175926 | 91 | 295 | 4.0 | 9.0 | 0.00 | 0.00 | 0.00 | 59 | 1011.1 |
| 20260902175819 | 91 | 259 | 4.0 | 9.0 | 0.00 | 0.00 | 0.00 | 58 | 1011.1 |
| 20260902175714 | 91 | 230 | 3.0 | 9.0 | 0.00 | 0.00 | 0.00 | 59 | 1011.1 |
| 20260902175609 | 91 | 279 | 3.0 | 9.0 | 0.00 | 0.00 | 0.00 | 60 | 1011.1 |
| 20260902175244 | 91 | 290 | 4.0 | 9.0 | 0.00 | 0.00 | 0.00 | 59 | 1011.1 |
| 20260902175140 | 91 | 258 | 4.0 | 9.0 | 0.00 | 0.00 | 0.00 | 58 | 1011.2 |
| 20260902175037 | 91 | 265 | 4.0 | 9.0 | 0.00 | 0.00 | 0.00 | 59 | 1011.3 |
| 20260902174930 | 91 | 245 | 4.0 | 9.0 | 0.00 | 0.00 | 0.00 | 61 | 1011.3 |
| 20260902174824 | 91 | 270 | 4.0 | 9.0 | 0.00 | 0.00 | 0.00 | 61 | 1011.3 |
| 20260902174718 | 91 | 278 | 5.0 | 9.0 | 0.00 | 0.00 | 0.00 | 59 | 1011.3 |
| 20260902174616 | 91 | 284 | 5.0 | 9.0 | 0.00 | 0.00 | 0.00 | 59 | 1011.3 |
| 20260902174509 | 91 | 288 | 5.0 | 9.0 | 0.00 | 0.00 | 0.00 | 59 | 1011.3 |
| 20260902174406 | 91 | 296 | 5.0 | 8.0 | 0.00 | 0.00 | 0.00 | 59 | 1011.3 |
| 20260902174302 | 91 | 307 | 5.0 | 8.0 | 0.00 | 0.00 | 0.00 | 61 | 1011.3 |
| 20260902174158 | 91 | 281 | 4.0 | 11.0 | 0.00 | 0.00 | 0.00 | 61 | 1011.3 |
| 20260902174055 | 91 | 287 | 4.0 | 11.0 | 0.00 | 0.00 | 0.00 | 61 | 1011.3 |
| 20260902173949 | 90 | 301 | 4.0 | 11.0 | 0.00 | 0.00 | 0.00 | 60 | 1011.3 |
| 20260902173626 | 91 | 281 | 4.0 | 11.0 | 0.00 | 0.00 | 0.00 | 59 | 1011.3 |
| 20260902173523 | 91 | 331 | 4.0 | 11.0 | 0.00 | 0.00 | 0.00 | 61 | 1011.4 |
| 20260902173415 | 91 | 281 | 4.0 | 11.0 | 0.00 | 0.00 | 0.00 | 60 | 1011.4 |
| 20260902173051 | 91 | 249 | 5.0 | 13.0 | 0.00 | 0.00 | 0.00 | 61 | 1011.5 |
| 20260902172724 | 90 | 255 | 5.0 | 13.0 | 0.00 | 0.00 | 0.00 | 61 | 1011.5 |
| 20260902172619 | 90 | 279 | 5.0 | 13.0 | 0.00 | 0.00 | 0.00 | 61 | 1011.6 |
| 20260902172517 | 90 | 246 | 5.0 | 13.0 | 0.00 | 0.00 | 0.00 | 60 | 1011.5 |
| 20260902172411 | 90 | 307 | 5.0 | 13.0 | 0.00 | 0.00 | 0.00 | 60 | 1011.5 |
| 20260902172308 | 90 | 274 | 5.0 | 13.0 | 0.00 | 0.00 | 0.00 | 61 | 1011.5 |
| 20260902172201 | 90 | 278 | 6.0 | 13.0 | 0.00 | 0.00 | 0.00 | 59 | 1011.5 |
| 20260902172057 | 90 | 289 | 6.0 | 13.0 | 0.00 | 0.00 | 0.00 | 59 | 1011.6 |
| 20260902171955 | 90 | 273 | 6.0 | 13.0 | 0.00 | 0.00 | 0.00 | 59 | 1011.5 |
| 20260902171850 | 90 | 314 | 6.0 | 13.0 | 0.00 | 0.00 | 0.00 | 60 | 1011.5 |
| 20260902171745 | 90 | 269 | 6.0 | 13.0 | 0.00 | 0.00 | 0.00 | 60 | 1011.6 |
| 20260902171639 | 90 | 287 | 6.0 | 13.0 | 0.00 | 0.00 | 0.00 | 59 | 1011.5 |
| 20260902171537 | 90 | 289 | 6.0 | 13.0 | 0.00 | 0.00 | 0.00 | 59 | 1011.5 |
| 20260902171434 | 90 | 266 | 6.0 | 13.0 | 0.00 | 0.00 | 0.00 | 59 | 1011.6 |
| 20260902171327 | 90 | 266 | 6.0 | 13.0 | 0.00 | 0.00 | 0.00 | 59 | 1011.6 |
| 20260902171223 | 90 | 254 | 5.0 | 13.0 | 0.00 | 0.00 | 0.00 | 58 | 1011.5 |
| 20260902171118 | 90 | 267 | 5.0 | 12.0 | 0.00 | 0.00 | 0.00 | 59 | 1011.6 |
| 20260902171013 | 90 | 246 | 5.0 | 12.0 | 0.00 | 0.00 | 0.00 | 59 | 1011.6 |
| 20260902170908 | 90 | 262 | 5.0 | 12.0 | 0.00 | 0.00 | 0.00 | 59 | 1011.6 |
| 20260902170804 | 90 | 277 | 4.0 | 12.0 | 0.00 | 0.00 | 0.00 | 59 | 1011.6 |
| 20260902170438 | 90 | 289 | 3.0 | 12.0 | 0.00 | 0.00 | 0.00 | 62 | 1011.6 |
| 20260902170335 | 90 | 268 | 3.0 | 12.0 | 0.00 | 0.00 | 0.00 | 62 | 1011.6 |
| 20260902170014 | 90 | 261 | 3.0 | 9.0 | 0.00 | 0.00 | 0.00 | 62 | 1011.6 |